GFSFLT2_500_spd_000.txt.gz
Wind_Speed
20 20 21 21 20 21 21 20 18 16 17 18 18 20 20 19 18 16 16 17 15 9 9 10 11 10 9 10 13 16 20 21
11 12 11 12 13 12 10 11 13 14 14 16 17 18 18 18 20 20 20 21 20 19 18 17 16 16 15 14 14 16 14 17
11 12 12 12 12 13 15 16 19 20 22 24 24 24 24 24 25 25 24 24 23 23 23 22 22 21 21 21 20 19 17 17
12 15 16 16 18 20 21 22 23 24 26 26 26 25 25 26 26 27 26 27 27 26 27 26 25 24 25 25 24 23 23 23
17 16 16 18 18 19 20 22 24 26 27 28 29 29 28 29 29 28 27 27 27 28 28 27 28 26 25 25 27 28 28 28
17 18 17 17 19 21 23 24 25 26 28 29 30 31 32 32 32 34 36 36 35 34 33 32 31 31 31 31 30 29 30 31
21 22 23 23 22 22 23 25 27 28 30 32 34 35 37 38 39 40 39 38 37 39 40 41 40 40 40 40 39 38 35 33
22 23 24 26 27 28 30 31 32 34 37 40 40 41 42 42 43 44 45 44 43 43 43 43 44 44 44 43 44 44 43 41
28 28 29 31 33 34 35 37 39 41 44 47 47 46 47 47 48 49 48 47 48 49 47 46 46 47 49 49 49 49 49 48
25 29 33 35 36 38 39 41 43 45 46 47 47 47 47 48 49 50 51 50 50 51 52 53 54 54 55 55 54 54 54 53
32 35 38 41 42 42 43 45 47 47 47 47 49 51 52 54 55 54 55 55 55 56 57 58 58 58 57 56 57 57 56 56
36 39 42 43 44 42 41 43 47 49 51 53 53 53 54 55 57 59 60 59 58 58 57 57 57 57 58 58 58 58 57 56
36 39 39 41 44 46 46 48 49 49 51 52 54 57 58 58 57 57 57 58 58 57 58 59 59 60 60 59 60 60 59 59
37 40 43 47 48 48 50 52 52 52 53 52 54 55 56 58 58 58 58 60 62 61 58 55 55 55 58 58 58 60 61 63
41 44 46 53 53 54 55 54 54 55 55 55 55 54 56 57 59 60 61 62 61 62 62 62 61 59 57 59 62 61 59 60
42 44 51 53 55 56 55 55 54 55 55 56 55 57 58 60 61 63 64 65 65 66 65 67 67 67 66 61 58 60 62 62
47 50 53 53 54 55 55 57 58 58 57 59 61 62 64 66 67 68 68 68 66 66 66 66 69 70 71 71 69 64 63 65
50 51 50 53 54 56 58 58 59 60 62 63 64 66 67 69 71 73 73 74 74 75 75 74 73 67 69 68 68 68 69 67
51 52 53 54 57 59 59 61 65 68 70 71 72 72 71 72 76 79 79 79 79 79 77 74 74 71 65 66 66 66 66 69
53 54 54 59 60 62 63 65 68 72 74 73 74 77 80 79 76 78 78 79 80 80 78 75 70 68 63 65 68 62 63 65

GFSFLT2_500_spd_003.txt.gz
Wind_Speed
9 10 12 12 11 10 10 10 10 12 14 16 18 19 19 20 20 20 21 20 17 14 15 15 14 13 13 13 12 12 14 17
9 11 13 15 12 10 12 15 17 17 18 20 21 21 21 21 22 24 24 24 22 22 21 19 17 15 17 19 19 17 17 17
12 13 14 15 16 17 17 17 18 19 20 20 21 21 20 21 22 23 23 23 24 24 23 23 22 22 20 18 20 21 21 20
13 15 17 18 19 19 19 20 20 20 21 22 22 22 23 23 23 23 23 23 23 24 24 25 24 24 21 21 20 21 22 24
12 14 15 16 18 19 20 21 21 22 23 22 23 25 28 29 28 28 30 30 29 28 28 27 27 27 26 24 24 23 23 24
12 14 15 16 19 20 22 24 25 27 28 28 30 33 35 36 36 36 36 36 37 36 33 31 31 31 33 33 33 32 32 33
17 18 19 21 22 25 27 29 32 33 34 36 37 39 40 40 40 39 39 39 40 40 39 38 37 38 38 37 37 38 39 39
22 24 26 28 29 31 34 36 38 39 39 39 40 41 41 40 39 39 40 40 41 42 43 43 43 43 43 42 42 42 43 44
25 28 28 30 30 32 35 38 40 41 41 40 40 40 39 39 41 42 43 43 43 45 45 45 46 47 47 46 47 47 48 48
29 33 34 35 36 38 40 42 43 43 42 42 42 43 43 44 45 46 46 46 46 48 50 51 51 51 51 51 52 52 52 52
31 36 39 41 40 41 43 43 44 45 45 46 49 50 51 51 51 52 52 51 50 49 48 48 47 47 48 49 50 51 52 52
36 38 41 40 42 43 46 46 46 44 47 49 50 51 51 51 48 47 48 49 49 50 50 49 49 50 51 51 50 51 53 53
37 40 41 42 45 49 49 49 52 50 50 50 51 52 52 54 54 53 53 53 53 55 57 58 57 56 57 56 55 53 52 53
39 40 42 46 49 50 51 52 51 51 52 53 55 55 56 55 55 56 57 58 59 59 60 61 62 63 64 63 62 58 57 56
41 42 46 50 50 53 52 52 53 54 55 56 58 58 57 58 59 61 62 63 64 65 66 66 66 67 63 66 65 61 58 57
43 46 50 51 50 50 51 54 55 56 59 61 62 63 64 64 65 67 67 68 68 69 70 70 72 71 71 64 67 63 63 60
45 48 49 50 51 53 56 58 59 61 64 63 65 66 67 68 70 69 69 70 71 73 75 76 73 74 75 77 72 75 73 70
47 49 50 52 55 58 59 61 63 65 68 70 71 72 71 73 74 76 75 76 77 76 76 76 75 73 74 77 73 72 74 73
47 49 52 54 57 59 62 63 67 69 71 74 77 78 79 80 81 81 82 79 79 79 78 78 78 78 78 78 74 74 75 75
50 52 56 59 61 64 68 71 73 75 77 78 79 82 83 85 87 87 87 85 82 82 80 81 81 81 79 77 72 65 70 70

GFSFLT2_500_spd_006.txt.gz
Wind_Speed
6 6 7 8 8 8 9 9 9 11 12 14 15 16 16 16 17 19 20 19 18 17 16 15 13 12 13 13 13 14 15 17
4 6 6 6 6 7 8 10 11 12 14 16 16 16 15 14 14 15 16 17 19 18 17 16 17 16 15 17 16 15 16 18
5 6 8 8 10 11 13 14 16 17 17 17 18 18 18 19 20 19 18 17 17 19 21 20 18 19 18 18 17 19 21 20
7 8 10 12 15 17 18 19 20 20 21 22 22 21 21 23 24 25 25 24 24 24 23 23 23 23 23 22 22 21 19 20
13 14 16 17 18 19 20 20 21 23 25 27 28 30 31 32 34 35 34 33 32 31 30 29 28 27 26 26 27 28 27 27
15 15 14 15 17 20 23 25 27 28 30 32 34 36 37 38 38 38 37 37 35 34 35 35 35 33 32 32 31 32 33 34
16 16 17 19 23 27 29 30 31 32 33 34 35 36 37 37 38 38 38 37 37 37 38 38 38 38 39 39 39 39 39 39
22 22 23 24 27 30 31 33 34 35 35 37 38 38 39 39 39 40 39 39 40 41 42 42 42 42 42 42 42 43 43 44
26 27 28 29 31 34 35 36 37 39 39 39 42 43 42 42 43 44 44 43 42 42 42 42 44 45 46 46 47 48 49 48
26 28 32 34 37 38 39 38 39 41 44 44 44 42 43 44 45 46 47 45 42 41 40 40 40 42 43 46 47 47 47 48
31 34 35 35 38 40 40 41 44 45 45 46 49 48 47 47 47 47 47 47 47 47 46 46 45 45 45 46 46 47 47 47
37 37 36 38 41 42 42 44 48 48 49 50 49 50 50 50 50 50 52 53 53 53 53 54 54 52 54 56 53 53 54 53
40 40 40 43 45 46 48 50 52 52 51 52 52 52 53 54 54 55 57 58 59 59 61 62 60 62 62 61 61 64 60 60
41 42 44 46 49 50 51 53 54 52 52 53 55 56 57 58 59 61 63 66 66 66 67 68 68 65 65 66 67 66 67 63
42 44 47 50 52 54 54 54 54 55 57 58 61 62 64 65 66 67 69 70 70 71 71 71 73 71 71 71 71 72 73 73
44 47 50 51 52 53 53 54 56 59 61 63 65 67 69 70 72 74 75 75 75 75 75 75 77 75 76 77 75 72 72 73
47 48 47 49 52 53 55 57 60 64 66 67 69 71 74 76 77 79 79 78 77 76 76 77 78 78 76 74 72 74 70 74
44 46 48 50 52 54 57 62 66 69 70 71 73 76 78 80 80 81 80 81 81 83 82 81 79 79 79 76 76 72 71 71
46 49 52 53 56 60 64 67 72 74 74 75 78 79 80 80 82 82 84 85 84 82 85 86 83 82 84 85 85 84 80 78
51 52 55 57 60 64 69 71 72 75 77 77 78 80 82 84 84 86 85 87 86 87 91 93 94 91 85 84 85 83 82 80

GFSFLT2_500_spd_009.txt.gz
Wind_Speed
6 4 3 4 4 4 4 5 7 8 11 12 13 13 13 12 13 13 14 14 14 14 14 15 16 16 17 16 15 16 16 15
1 1 1 3 4 6 8 9 11 13 15 17 18 19 19 17 16 17 17 18 17 16 16 16 16 18 19 20 20 19 19 20
4 6 7 8 10 12 14 16 17 19 19 20 20 22 23 23 24 26 26 26 26 25 24 23 21 19 19 21 23 23 24 22
11 12 14 14 15 16 17 18 19 20 21 23 24 26 27 29 29 31 31 32 33 31 30 29 27 27 25 24 23 24 27 27
15 15 15 17 19 19 20 21 23 25 27 27 28 30 31 32 34 35 34 34 34 33 32 32 32 31 30 29 29 28 29 29
14 16 16 19 20 21 23 25 27 29 31 32 32 32 33 35 36 36 36 36 35 36 36 36 36 35 34 33 33 33 33 33
16 18 20 22 26 27 28 30 32 34 34 34 34 35 36 36 39 39 39 38 38 38 38 39 40 40 39 39 39 38 38 38
20 22 24 27 30 32 32 33 34 36 37 37 38 39 41 40 42 41 41 42 42 41 41 41 41 41 40 40 41 42 43 43
25 26 27 29 32 34 35 37 39 41 40 39 41 42 41 41 43 41 41 41 42 43 42 41 41 41 40 40 41 43 45 46
29 29 32 34 34 36 37 39 41 42 41 43 45 45 45 44 44 44 45 44 44 44 44 45 46 45 44 44 45 44 46 46
33 32 36 37 38 39 41 44 46 47 47 48 49 48 48 48 50 51 51 51 51 51 52 52 52 51 51 51 50 50 53 54
38 38 39 42 44 44 46 49 51 52 52 51 51 50 51 53 55 56 57 57 57 57 58 59 60 62 61 61 60 61 59 59
41 43 44 46 48 48 50 53 55 55 55 54 54 53 53 56 58 60 61 62 63 64 65 65 66 67 69 68 68 68 68 68
41 46 47 49 50 51 54 56 56 56 56 57 58 58 60 62 65 66 67 69 70 72 73 73 73 73 75 75 74 74 73 75
47 49 49 51 53 54 57 57 57 57 59 59 60 64 67 68 69 69 70 73 74 76 77 77 77 75 74 76 77 76 74 75
47 49 51 53 54 56 55 56 57 59 61 62 64 68 70 72 74 75 75 77 78 78 78 77 78 77 77 76 76 76 72 75
50 51 51 50 51 53 56 56 58 59 66 66 63 70 72 75 77 78 77 77 78 80 80 80 79 79 78 79 80 77 76 78
48 47 48 51 54 55 57 57 56 59 67 69 71 72 75 77 77 79 80 81 80 80 80 81 80 81 81 82 82 83 83 84
43 48 52 56 56 57 59 61 64 66 69 72 74 75 76 78 80 80 79 80 81 81 82 81 84 84 83 86 86 89 89 89
49 53 54 57 58 60 64 68 70 71 73 75 74 75 78 79 79 80 80 80 81 82 86 86 87 90 90 89 83 77 78 73

GFSFLT2_500_spd_012.txt.gz
Wind_Speed
4 3 4 4 4 5 6 8 9 11 13 14 15 15 15 16 16 16 17 17 17 17 19 19 19 19 19 19 19 17 17 19
1 1 3 5 7 8 10 12 15 16 17 18 18 19 19 20 21 20 22 24 25 25 25 24 23 23 22 21 22 21 21 21
6 7 9 10 13 14 14 15 16 18 19 21 21 23 24 22 26 25 26 28 27 27 28 26 25 27 25 24 24 22 24 26
10 11 11 13 14 16 18 19 21 21 22 24 26 27 27 28 26 28 28 30 29 29 28 29 26 26 25 26 28 26 27 28
9 10 12 15 17 19 21 22 24 25 26 28 30 29 28 29 30 31 31 32 34 33 33 31 31 31 31 30 29 30 31 30
10 14 16 18 20 22 24 26 28 29 29 31 32 32 33 33 35 38 39 39 39 37 35 35 35 33 33 35 35 35 36 36
14 17 19 22 24 26 29 32 33 33 32 33 36 37 36 36 39 40 39 39 40 38 36 37 35 34 34 34 34 35 36 38
20 21 23 25 27 30 33 35 36 36 36 37 36 38 38 40 42 42 40 39 37 37 37 38 38 37 36 34 34 36 37 37
25 18 25 27 28 32 35 36 39 40 41 41 41 43 42 43 42 40 39 39 40 40 40 40 40 41 41 42 42 39 38 40
23 36 29 32 34 36 38 40 42 45 45 47 44 44 41 43 43 42 42 44 46 47 48 48 48 49 49 49 47 47 48 48
33 41 36 35 39 41 44 44 46 49 51 51 51 51 48 48 49 47 48 49 51 53 54 54 54 55 56 56 58 59 59 58
38 41 41 39 42 46 50 51 51 52 54 56 52 53 51 52 52 53 55 56 57 58 58 58 59 61 61 61 62 63 66 67
40 39 36 44 51 51 52 52 54 56 58 57 55 56 56 57 57 59 60 62 63 62 62 63 64 66 66 66 66 67 68 69
42 44 47 49 51 54 54 53 57 58 58 58 59 58 57 60 61 64 67 68 71 71 72 71 70 70 72 74 74 72 71 71
45 48 49 50 53 55 56 56 57 57 58 62 63 62 60 58 69 74 73 72 74 76 76 77 77 75 76 77 77 77 77 73
47 49 51 50 54 55 55 55 58 60 61 62 62 64 66 69 72 75 75 76 77 78 78 79 80 78 77 78 77 77 76 79
48 49 50 51 51 52 54 58 58 59 61 63 65 68 72 74 76 77 77 80 80 80 81 78 78 79 78 79 80 79 80 81
44 46 47 51 53 53 54 56 58 61 65 69 72 75 76 77 79 80 82 84 82 84 82 83 82 82 82 81 82 83 83 86
41 44 49 51 55 57 60 62 65 69 72 74 76 77 76 77 79 80 82 82 84 88 91 94 90 86 84 84 85 88 88 89
45 46 48 53 58 61 64 68 71 75 75 75 76 77 79 82 82 83 84 85 87 91 92 89 86 84 83 86 87 87 85 79

GFSFLT2_500_spd_015.txt.gz
Wind_Speed
6 5 3 1 1 4 7 8 10 11 12 13 14 15 17 18 18 20 19 20 21 22 23 23 23 22 20 21 23 24 26 22
1 2 3 5 7 8 11 12 14 15 14 15 17 17 20 23 22 21 22 22 23 24 24 22 22 24 24 23 24 25 29 26
4 5 7 8 11 12 14 16 18 21 20 20 21 21 23 24 25 24 23 23 23 24 24 24 23 22 21 22 25 25 31 30
6 6 8 11 12 13 15 17 20 23 25 26 25 24 24 23 23 24 26 27 29 31 31 30 28 27 24 23 24 25 28 30
8 10 11 11 11 15 18 20 22 23 26 27 28 28 29 30 30 30 31 32 33 33 32 32 30 29 29 29 28 28 29 31
14 13 12 14 17 20 20 23 25 26 28 30 32 34 35 35 35 36 36 36 36 36 36 35 29 28 28 29 29 29 30 29
15 16 13 14 17 21 26 29 30 31 32 33 34 34 35 36 37 37 38 37 36 35 34 32 31 31 30 29 29 31 31 32
15 26 18 14 21 27 30 33 34 34 35 37 37 39 39 40 40 38 37 35 35 33 32 33 34 34 33 33 32 32 33 35
26 19 20 17 26 31 34 34 35 38 41 39 40 43 42 44 43 42 40 39 38 37 38 40 41 40 39 39 40 40 38 39
35 26 31 37 29 32 36 37 42 48 47 47 45 43 46 48 47 46 46 44 43 43 45 47 48 48 47 47 47 47 47 48
33 32 33 34 31 33 42 47 50 49 52 53 53 53 51 49 49 50 52 52 51 50 51 53 54 54 54 53 52 52 52 53
35 36 37 39 44 46 47 49 51 53 55 54 52 51 52 55 56 56 57 58 59 60 60 61 61 61 61 60 60 60 60 60
40 40 43 46 48 49 48 53 54 56 57 55 55 56 58 58 59 59 60 60 62 65 67 69 70 71 72 72 70 70 70 70
42 45 44 48 49 52 53 51 55 55 55 57 60 61 61 63 65 65 66 67 69 72 74 76 76 78 79 79 78 75 74 72
43 45 48 50 51 52 53 53 51 53 56 58 59 62 64 65 67 71 74 76 77 78 79 79 79 79 80 80 82 82 82 77
43 46 47 48 50 49 48 50 52 53 55 58 61 63 67 71 73 76 78 80 82 82 82 82 82 81 80 82 82 82 86 84
44 44 43 43 44 45 49 49 51 55 58 61 66 70 74 77 78 80 82 83 82 82 82 83 84 83 82 82 83 85 87 88
40 41 44 47 48 47 47 49 53 57 62 67 73 76 77 80 83 82 81 82 83 84 84 84 84 85 88 90 92 89 89 92
37 39 41 46 48 51 55 60 65 70 74 77 80 82 82 84 84 83 83 84 84 84 85 87 87 88 90 90 91 90 90 91
38 40 41 43 48 53 58 64 69 74 77 80 82 83 82 81 81 82 82 82 84 85 85 86 87 86 86 84 82 78 74 71

GFSFLT2_500_spd_018.txt.gz
Wind_Speed
10 8 6 4 2 5 7 9 11 12 13 14 16 19 19 20 21 23 23 24 25 24 24 25 25 25 26 27 27 26 25 25
8 6 6 7 8 10 11 13 14 14 15 18 20 22 24 25 25 26 24 24 25 24 24 24 24 24 25 26 26 25 24 26
8 8 10 11 12 13 13 13 14 17 19 21 23 24 24 26 26 25 25 26 27 27 27 28 30 28 26 28 29 27 24 23
9 11 14 11 12 12 13 16 17 19 20 21 22 22 23 24 26 26 27 29 31 32 32 32 32 32 31 30 30 31 29 29
15 12 13 11 12 14 17 19 20 23 23 24 25 25 27 29 30 32 33 36 36 36 36 35 34 33 32 30 29 32 33 30
16 14 14 14 17 18 21 22 23 25 26 28 30 32 33 34 34 35 36 37 36 35 36 36 35 31 29 29 31 32 34 32
21 17 16 20 23 14 24 26 26 26 26 26 32 36 36 38 39 38 38 37 35 35 33 32 31 30 31 32 32 33 34 36
15 19 13 24 27 25 33 28 33 31 28 31 42 39 40 41 43 43 40 38 37 35 34 34 34 34 34 36 37 37 37 39
13 19 20 17 24 27 36 30 34 35 37 43 41 44 44 44 44 42 41 40 41 43 43 42 41 39 41 42 43 43 43 44
27 21 20 27 28 30 30 39 43 40 40 44 46 43 42 40 42 44 45 46 46 47 48 48 47 46 47 49 51 51 51 50
26 27 32 35 35 37 39 39 42 42 45 49 50 48 44 43 44 46 46 47 49 52 54 55 56 56 57 57 57 56 57 58
27 31 32 35 43 47 47 43 38 40 47 50 47 48 49 49 48 49 49 50 52 55 57 60 61 62 63 63 64 66 68 70
35 37 42 49 50 50 45 41 41 47 51 48 50 50 51 53 55 56 57 58 61 64 66 68 70 72 73 73 74 74 75 75
42 47 49 50 50 43 42 49 51 48 48 52 53 55 58 60 61 65 68 71 73 74 75 76 78 79 79 79 79 78 80 81
43 46 48 49 51 52 53 51 48 50 54 55 57 60 63 65 69 73 76 79 81 83 84 83 82 84 85 86 85 85 85 82
43 46 49 50 50 49 46 46 49 51 53 56 60 63 66 71 75 78 81 83 85 85 84 83 83 83 85 87 88 89 88 85
42 43 46 45 44 43 45 47 49 49 53 57 62 67 71 76 80 82 84 85 83 82 82 84 86 86 87 87 87 88 89 89
45 45 42 42 42 42 43 44 49 54 59 64 69 73 78 82 84 86 87 86 83 82 82 83 84 86 88 89 90 91 91 94
35 37 38 40 39 41 46 51 57 63 68 72 78 84 86 89 90 88 86 84 84 84 86 86 88 88 89 90 90 91 91 90
29 31 32 36 42 48 53 60 65 70 74 79 83 87 90 90 88 86 87 86 86 88 88 87 84 85 83 82 78 74 71 70

GFSFLT2_500_spd_021.txt.gz
Wind_Speed
11 12 9 8 8 9 11 13 14 15 16 17 17 19 22 24 26 27 29 31 29 28 28 26 26 27 28 29 29 28 28 29
12 10 9 9 11 12 15 16 16 16 16 19 20 23 25 26 26 26 27 29 29 30 30 30 30 30 32 32 30 29 29 28
12 11 11 12 14 16 17 17 17 19 21 22 23 23 24 24 25 26 28 29 30 32 33 35 36 35 35 34 33 30 29 28
10 13 13 15 15 17 18 19 21 22 22 23 23 23 24 25 28 29 30 32 33 35 36 37 36 35 35 36 35 30 28 28
13 13 12 14 18 20 22 22 23 25 24 26 27 27 26 28 31 32 33 34 35 36 37 35 35 35 35 35 33 33 30 28
11 12 15 17 17 20 26 21 21 22 25 28 29 30 27 38 33 33 34 35 36 36 34 32 31 30 31 33 34 33 33 33
14 15 16 17 16 20 23 22 25 26 28 28 30 28 40 37 38 38 37 37 35 34 33 32 31 31 32 33 34 36 38 39
17 18 16 18 19 18 21 28 35 34 35 37 37 40 39 38 38 40 39 37 35 35 35 35 34 36 36 37 38 40 42 43
17 19 21 19 19 22 24 23 27 35 39 41 42 40 42 41 39 38 39 40 39 38 39 39 38 39 39 40 41 42 45 47
16 17 19 24 29 29 29 31 43 44 43 46 43 43 44 41 37 39 40 41 40 41 42 42 44 45 46 48 50 52 53 53
18 21 22 24 28 27 43 45 46 46 43 40 42 46 46 41 40 39 39 40 41 43 46 49 51 54 56 57 58 59 60 60
19 27 29 28 38 47 47 48 48 40 38 43 47 45 45 45 42 45 46 48 51 53 55 57 60 61 63 64 65 67 68 68
22 28 41 43 45 49 49 45 38 44 48 46 48 47 47 47 49 52 56 58 61 62 65 67 69 71 72 72 73 73 73 75
33 38 44 47 48 49 44 45 49 52 50 48 49 49 51 54 58 62 65 67 70 73 76 77 78 80 81 80 80 78 76 78
37 42 45 50 52 52 53 52 51 49 50 50 50 53 58 62 66 71 74 76 79 82 83 84 85 85 85 87 86 86 86 80
46 50 51 53 56 56 53 50 50 50 51 54 57 61 65 68 72 76 78 79 83 85 87 87 87 86 85 85 85 88 91 95
47 50 54 54 48 46 44 45 47 50 52 56 59 63 67 71 74 78 83 87 90 90 90 89 88 87 86 87 87 88 91 95
45 50 49 44 43 43 44 45 47 50 55 60 64 69 74 77 82 86 89 91 91 90 90 90 91 90 92 91 90 93 91 93
46 44 39 37 38 40 43 46 51 56 61 66 72 77 82 85 88 91 93 93 92 92 92 92 92 91 89 86 85 81 78 80
39 34 33 36 39 43 49 54 59 63 67 72 77 82 86 89 93 95 96 96 96 96 95 93 85 78 80 75 72 72 78 71

GFSFLT2_500_spd_024.txt.gz
Wind_Speed
10 8 9 9 10 11 13 14 15 16 18 19 19 20 23 26 28 28 26 25 26 27 27 27 28 30 31 31 31 29 29 30
7 10 10 12 13 14 15 16 18 19 20 20 21 25 28 28 28 28 28 28 29 30 31 32 32 32 33 32 32 31 28 28
6 8 11 13 13 16 17 20 19 18 19 22 26 28 29 28 29 27 31 33 32 31 32 32 34 35 36 35 30 29 30 28
5 9 10 13 15 18 18 19 20 20 20 22 25 26 29 32 31 28 38 35 35 34 34 34 36 34 34 33 32 29 26 26
9 10 12 13 15 18 19 20 24 23 21 24 26 27 29 33 32 32 39 37 38 38 36 34 35 32 29 30 31 32 31 28
7 10 13 16 18 20 21 21 23 24 21 25 26 29 31 34 34 43 39 39 39 36 34 32 30 30 29 30 31 30 33 34
11 14 19 20 20 21 23 23 22 22 25 30 32 35 38 38 40 40 41 41 37 34 32 31 30 30 31 30 30 32 32 33
17 18 20 21 21 24 24 21 17 17 26 35 37 38 41 42 40 42 41 39 37 36 34 33 32 32 32 33 33 35 37 38
19 22 20 17 19 26 31 24 14 29 34 38 42 43 43 41 43 43 42 39 41 39 37 36 36 37 38 39 42 43 44 45
22 20 22 22 24 26 20 28 32 36 42 42 43 41 37 40 45 45 44 42 41 39 39 39 43 45 47 48 49 51 51 52
20 15 21 28 24 25 32 37 37 45 45 46 41 37 48 46 44 45 41 40 42 45 48 50 52 53 55 57 59 61 62 62
16 15 22 27 33 36 36 39 44 47 45 42 47 54 54 49 47 42 44 47 51 54 56 59 61 63 65 66 69 71 71 72
17 23 35 38 38 36 45 49 46 51 54 54 51 51 49 46 46 49 53 57 61 63 65 67 71 73 75 77 78 79 79 78
32 38 41 44 45 53 52 52 53 52 49 47 46 45 44 48 52 56 61 66 69 72 74 76 78 81 83 83 83 82 80 79
39 43 44 46 51 52 53 54 48 46 46 44 43 47 52 56 60 63 66 69 72 75 78 81 84 86 88 90 93 96 97 94
36 39 46 48 51 54 57 54 49 45 42 45 50 54 58 60 62 65 70 74 78 81 83 86 89 92 93 94 94 95 95 96
36 43 42 52 51 55 55 50 46 46 49 52 54 57 60 64 68 73 78 81 84 86 89 92 96 98 97 97 95 95 96 96
42 47 57 49 49 50 46 45 46 47 50 55 59 63 67 70 74 78 82 85 89 92 95 99 99 97 98 97 98 93 88 86
46 52 48 47 47 46 45 47 50 53 58 61 64 67 71 75 79 83 86 90 94 96 99 99 100 101 97 90 83 74 75 71
50 47 47 45 45 46 49 51 54 58 60 63 67 70 76 79 84 87 91 94 95 98 98 102 103 92 80 72 69 68 68 64

GFSFLT2_500_spd_027.txt.gz
Wind_Speed
10 12 12 10 8 8 8 10 12 14 17 19 21 22 23 25 28 28 27 28 28 28 31 31 30 30 30 27 28 30 30 29
11 11 11 8 8 8 9 13 15 17 20 21 22 23 25 26 26 27 29 29 27 33 36 33 32 31 31 31 31 29 29 29
8 9 6 5 6 10 13 16 18 20 19 22 24 24 24 26 26 28 31 33 30 38 35 36 36 35 34 34 32 30 28 26
6 6 6 7 10 14 16 18 19 20 21 23 25 23 24 27 28 30 32 31 33 40 38 36 37 35 33 33 32 31 30 27
5 5 7 10 13 15 18 20 22 21 21 23 24 23 27 31 35 35 34 35 38 38 39 39 35 33 30 29 28 28 28 28
4 7 11 13 15 18 21 25 25 24 25 27 25 27 32 33 35 36 38 40 35 38 39 37 34 33 30 30 29 28 26 25
8 9 13 17 19 23 24 28 29 29 26 26 26 28 32 37 40 40 37 37 39 39 38 38 37 35 34 32 31 31 30 28
10 14 15 18 20 22 24 27 27 27 28 20 24 32 36 38 42 38 35 40 43 43 41 39 37 34 33 34 35 37 37 37
16 17 20 21 21 22 27 31 30 19 21 29 33 44 42 40 38 33 42 50 45 44 44 38 36 36 38 40 43 44 46 48
15 18 23 25 27 28 31 24 22 20 29 33 41 44 44 42 50 50 50 44 43 41 40 40 42 45 48 50 52 53 54 55
21 22 23 24 26 35 29 30 26 33 40 39 38 38 42 51 48 45 45 41 39 41 44 47 50 54 57 58 60 62 64 66
20 22 25 33 27 39 38 36 40 43 44 41 45 46 43 44 44 42 40 42 45 47 51 55 58 61 64 67 70 71 72 73
20 26 23 41 42 44 43 44 45 46 48 48 47 45 44 43 41 42 46 50 54 57 60 63 66 68 70 71 71 73 75 76
25 30 35 42 39 42 45 44 49 51 49 45 43 42 40 42 46 51 55 58 59 60 62 64 66 72 75 78 81 82 83 88
30 34 40 42 42 45 53 55 59 58 54 50 47 47 48 50 53 56 58 58 61 64 69 72 78 83 85 89 92 94 97 101
34 38 42 42 43 50 53 57 52 53 53 51 50 51 52 55 56 59 61 64 68 72 76 81 85 88 91 95 100 103 109 113
32 38 40 41 49 53 53 48 51 50 52 52 52 54 57 60 62 64 67 71 76 81 86 89 91 93 96 100 104 109 110 109
36 40 41 47 49 49 48 49 50 50 52 53 56 58 61 62 65 69 73 78 82 87 92 93 95 98 102 107 109 103 94 88
38 39 39 42 44 46 48 50 54 53 53 56 59 61 61 65 70 74 78 83 88 92 92 95 100 105 109 107 93 81 73 65
32 35 38 41 44 47 50 51 51 53 56 59 61 62 66 70 74 79 84 89 93 94 97 102 106 110 100 84 68 60 53 46

GFSFLT2_500_spd_030.txt.gz
Wind_Speed
14 14 12 12 12 11 9 7 8 10 13 16 19 22 24 23 24 26 25 25 26 27 27 25 29 29 29 29 30 30 30 30
15 12 12 13 11 10 8 8 11 13 17 20 22 23 23 25 25 26 22 24 28 28 28 29 37 38 36 33 31 30 32 31
12 13 14 12 11 9 10 13 16 18 19 20 21 22 25 25 26 25 23 31 31 30 31 37 39 38 38 37 36 34 32 31
11 12 12 11 10 12 14 17 19 20 20 21 24 25 26 24 25 26 29 30 30 32 33 37 38 38 36 34 34 32 31 30
11 9 10 11 13 14 16 19 20 23 24 25 26 25 25 29 30 32 31 35 35 34 32 32 35 38 36 34 32 32 31 31
9 9 9 10 11 14 18 21 23 24 26 30 30 31 29 28 30 33 36 38 39 35 33 35 37 37 36 36 35 34 32 31
7 8 9 11 14 16 21 23 27 28 30 35 35 31 29 26 33 36 38 39 40 36 37 42 44 40 38 37 35 34 32 33
10 9 12 14 15 20 24 26 28 30 30 29 22 16 23 35 40 44 45 44 43 44 46 45 42 42 41 36 35 36 37 38
10 11 13 17 20 25 26 29 30 34 27 18 23 40 37 38 41 45 46 48 47 44 41 39 37 37 37 37 39 42 44 46
12 14 19 20 21 32 30 31 28 23 23 25 46 42 42 42 40 42 45 39 39 37 34 35 37 38 40 43 46 50 52 54
16 18 23 24 28 33 37 35 32 38 40 36 35 38 39 39 40 39 40 39 38 38 40 41 43 45 48 51 53 55 58 61
21 23 24 26 36 33 38 38 32 37 40 43 44 39 37 39 40 41 42 42 42 44 47 50 53 54 54 55 57 59 62 66
22 26 25 28 34 38 40 43 42 43 45 50 47 43 40 39 39 42 45 47 50 53 56 57 57 58 59 62 65 68 70 73
25 27 31 33 38 41 42 42 44 49 57 57 52 50 50 50 50 51 52 55 56 57 57 59 62 65 67 70 73 77 81 84
27 28 30 35 37 42 45 48 52 54 49 48 49 50 51 53 54 56 57 57 59 60 62 66 69 73 76 79 83 86 89 91
28 27 32 36 37 40 45 48 47 47 48 50 50 53 55 56 56 57 59 61 62 65 68 73 77 81 84 87 89 92 94 97
30 32 31 31 36 40 42 43 46 49 51 52 56 58 56 57 60 61 62 64 67 71 76 80 83 86 89 92 94 96 101 106
21 24 28 31 34 37 40 43 46 49 51 54 56 58 60 61 62 62 63 67 72 77 81 86 90 92 92 96 100 105 107 100
23 27 31 34 38 41 43 46 48 51 54 56 59 61 62 62 62 64 67 73 79 84 89 92 92 94 99 103 106 102 88 74
27 30 33 36 40 43 46 49 52 54 55 59 61 61 62 63 65 68 74 79 84 88 92 92 95 99 102 102 91 78 64 52

GFSFLT2_500_spd_033.txt.gz
Wind_Speed
17 14 12 7 9 10 10 10 7 7 9 13 16 18 21 23 25 26 27 26 23 22 24 24 24 23 29 31 31 30 29 28
11 12 7 10 9 10 9 7 7 10 13 17 19 22 24 25 26 28 26 25 26 26 28 28 29 31 33 35 36 34 30 30
15 7 11 9 9 9 9 9 11 14 17 21 23 24 26 28 28 28 27 25 29 29 30 32 36 36 38 39 37 38 37 35
11 9 7 7 9 10 11 12 14 16 20 22 26 28 28 30 31 28 30 29 29 30 31 34 37 41 39 38 39 38 37 38
5 4 5 8 10 11 11 12 15 18 22 25 27 29 31 32 31 31 30 29 29 31 32 35 34 36 38 39 40 38 37 37
5 7 9 10 10 9 12 15 18 21 23 26 28 32 34 34 37 33 32 32 35 43 44 41 38 42 42 43 42 38 38 38
8 9 10 10 11 13 16 18 21 24 26 28 30 33 37 37 31 29 28 32 36 42 44 45 46 46 44 41 39 39 39 38
9 12 12 14 16 17 19 23 26 27 29 33 31 30 26 37 42 45 41 38 40 43 43 47 45 42 38 37 36 36 36 37
11 13 16 18 19 22 25 29 35 26 21 24 27 33 42 45 42 41 42 42 43 44 42 40 41 37 35 34 37 38 40 43
13 17 19 21 23 23 29 35 32 22 42 33 31 34 38 42 42 38 40 39 38 39 39 39 38 38 40 42 43 45 48 50
15 18 21 24 25 28 29 25 34 41 43 37 32 38 42 37 36 36 37 36 37 38 41 43 45 47 48 49 51 54 55 56
19 21 24 26 28 32 39 37 34 39 40 42 43 45 43 44 41 40 43 45 47 48 49 50 51 52 53 53 53 56 58 59
24 25 25 26 29 32 36 37 38 40 41 44 45 46 47 48 48 48 48 51 50 50 52 53 53 54 55 56 56 60 64 68
25 28 31 32 33 32 35 38 38 38 40 42 44 45 47 48 48 51 50 49 53 55 55 55 56 58 60 63 65 67 70 74
27 29 31 32 31 35 36 36 37 39 42 45 46 48 49 51 52 52 56 58 58 58 59 59 60 62 67 71 74 77 80 82
30 30 30 31 31 30 33 35 38 40 43 46 49 50 52 54 57 59 61 60 60 61 62 64 66 71 75 78 81 85 88 87
24 22 22 23 26 30 33 37 40 43 47 51 53 55 55 56 59 62 64 64 63 63 64 68 73 77 81 85 88 90 90 93
18 20 23 25 29 32 35 39 42 46 49 52 55 58 59 61 62 64 64 64 64 66 70 75 79 84 88 91 90 92 97 101
21 24 27 30 33 36 39 42 46 49 52 55 57 58 59 61 62 65 65 65 67 71 75 80 84 88 91 92 94 98 101 94
26 29 32 35 38 41 44 47 50 52 55 56 58 59 60 62 64 66 66 67 72 76 81 84 88 91 92 94 97 95 87 77

GFSFLT2_500_spd_036.txt.gz
Wind_Speed
27 30 19 11 11 7 4 5 8 11 12 11 15 16 17 20 22 23 23 26 25 25 26 27 28 27 28 29 30 31 33 35
26 21 9 11 4 3 6 7 9 11 13 12 15 17 20 21 24 25 27 27 25 28 29 28 30 30 32 32 33 37 39 43
19 4 6 4 4 7 7 7 7 8 11 14 17 19 21 23 25 28 30 28 28 31 29 29 31 31 33 38 41 43 42 47
5 8 4 1 4 5 5 6 8 11 13 16 17 21 23 24 26 28 30 30 35 32 29 30 35 38 39 42 43 44 44 43
12 9 4 2 3 5 6 9 11 14 16 19 21 22 24 26 29 28 29 23 26 24 26 30 34 37 40 44 46 46 46 47
5 5 5 6 6 7 9 11 15 17 20 21 23 24 26 31 28 28 34 36 43 38 37 35 34 38 42 45 48 45 43 43
4 4 7 6 7 10 12 13 16 19 23 26 24 27 28 27 29 34 36 42 45 45 44 44 41 40 44 45 40 38 39 40
5 6 6 8 12 14 16 18 21 24 29 18 21 29 18 32 27 37 37 42 38 39 39 39 38 38 37 38 37 35 36 36
5 6 8 12 14 17 19 19 26 26 27 21 30 30 27 23 31 34 37 37 32 33 37 36 33 34 36 37 37 38 40 43
11 11 13 16 18 20 23 21 27 26 33 29 32 30 34 34 36 34 36 35 35 33 36 37 39 39 41 41 41 44 47 50
12 15 18 18 21 25 28 26 26 34 35 35 34 34 34 34 36 37 39 40 41 42 44 45 46 45 45 45 46 47 49 51
17 19 21 25 26 28 30 32 33 33 35 35 33 32 34 36 38 41 42 44 46 48 49 49 51 52 52 51 50 49 49 52
20 22 25 27 28 29 29 28 30 33 32 32 33 36 38 42 44 46 45 47 50 49 50 51 49 49 49 48 50 52 53 59
23 25 27 27 27 28 27 29 28 30 33 35 38 41 44 47 49 51 52 52 52 55 56 56 54 53 52 52 53 55 61 65
26 28 26 27 25 23 22 25 28 31 34 37 41 43 47 49 51 51 54 56 58 59 59 59 58 56 58 61 65 66 70 73
27 27 23 21 21 23 26 28 31 34 36 38 42 45 49 52 55 57 58 58 59 59 60 60 60 62 65 69 73 77 80 80
25 19 20 21 24 26 30 34 36 39 42 45 48 49 53 54 55 57 58 59 59 59 62 62 63 67 71 75 78 81 84 87
18 20 20 25 29 31 35 39 42 44 47 49 51 53 54 57 58 60 62 62 62 63 64 65 68 73 78 81 84 86 89 92
21 23 26 30 33 37 40 43 46 48 50 51 53 55 56 57 59 61 63 62 63 64 65 68 72 76 80 84 87 89 94 99
25 29 33 35 39 42 44 47 49 51 53 55 56 57 57 59 60 62 62 62 64 66 67 71 76 80 82 85 90 92 96 93

GFSFLT2_500_spd_039.txt.gz
Wind_Speed
49 32 39 36 31 20 12 8 8 8 12 12 11 9 13 19 19 21 21 23 26 25 24 24 28 28 26 27 27 28 29 32
27 31 30 19 10 6 10 9 5 7 8 2 9 14 17 18 19 19 21 25 27 24 25 29 29 27 30 32 30 30 35 37
19 26 17 5 8 11 9 5 4 4 6 9 11 15 16 18 20 21 22 25 26 24 23 23 22 23 29 30 32 37 40 39
22 13 11 18 14 11 8 3 3 8 10 9 13 15 18 18 19 21 23 22 21 22 25 36 36 34 33 35 38 39 40 45
5 20 19 15 13 8 3 5 8 8 9 11 14 16 20 19 21 23 26 27 29 28 25 37 35 37 37 36 38 41 42 47
15 11 11 9 6 3 6 6 9 9 11 13 17 21 19 16 18 20 27 22 27 36 37 38 31 32 32 33 35 38 41 44
9 7 5 3 3 2 6 6 10 10 14 17 21 21 15 22 23 20 20 22 25 25 26 29 30 32 33 33 35 35 38 39
6 5 4 2 1 6 7 8 8 10 16 11 16 24 26 26 28 26 23 23 26 28 30 31 31 32 34 36 36 38 40 40
3 1 1 2 4 6 8 10 13 18 20 22 29 23 21 25 25 24 25 27 28 30 32 32 33 35 34 35 36 37 40 41
2 4 5 5 9 13 14 18 21 20 21 24 24 25 27 25 25 27 29 30 32 35 37 38 40 42 43 44 45 44 43 43
5 9 10 10 16 18 20 22 22 21 20 23 24 23 23 25 28 31 33 35 37 39 41 42 44 44 44 46 45 45 43 44
10 15 13 16 18 20 21 22 22 21 23 21 22 24 26 28 31 34 37 40 42 45 46 47 47 48 48 47 45 44 42 44
14 19 19 20 22 22 24 23 21 20 22 24 27 29 30 33 36 38 42 44 46 48 49 50 50 50 49 49 46 44 47 50
18 22 24 21 21 20 18 18 20 22 25 28 32 34 36 40 42 43 45 47 49 50 51 54 54 53 53 52 49 48 51 54
21 22 23 20 20 17 17 20 23 27 30 33 37 40 42 45 46 47 48 49 49 51 54 56 56 55 55 54 55 57 59 61
22 19 19 17 17 18 23 25 28 31 35 38 42 45 48 50 50 49 50 51 52 54 56 57 56 55 56 58 61 64 68 71
19 14 15 17 20 22 29 31 33 37 41 43 46 49 51 51 53 55 55 53 54 56 58 58 57 56 59 62 66 70 74 76
15 16 18 22 26 29 34 38 41 44 47 49 52 55 56 57 57 58 58 59 61 61 62 61 59 61 63 67 71 76 78 81
18 21 22 27 33 36 39 43 46 49 53 54 56 57 57 58 58 58 55 60 63 63 63 63 63 65 67 72 79 82 84 88
22 26 27 31 36 39 43 46 49 52 54 54 55 55 57 57 57 56 54 62 65 66 64 64 67 69 73 80 83 87 88 91

GFSFLT2_500_spd_042.txt.gz
Wind_Speed
45 44 37 26 36 47 42 33 9 7 5 6 9 16 19 17 15 16 20 21 22 25 27 26 27 26 21 24 24 20 22 24
48 38 48 48 46 42 33 16 11 9 8 9 13 11 13 15 18 22 22 22 25 26 29 26 16 21 24 27 27 25 28 31
39 34 29 27 29 12 10 17 16 10 5 5 8 13 16 20 22 19 19 22 25 27 26 26 25 22 28 33 35 37 39 39
32 31 26 16 12 16 20 16 14 12 11 13 15 15 15 16 17 16 20 24 22 21 24 29 30 31 33 34 34 37 40 40
20 17 16 22 20 15 12 11 10 8 7 10 14 12 14 19 21 12 16 19 25 24 23 26 26 29 33 30 30 32 34 35
23 23 23 19 16 13 11 7 6 7 8 10 12 17 17 16 16 16 17 21 23 20 20 24 24 25 27 28 31 32 33 35
19 16 16 12 11 8 5 5 5 5 9 8 14 15 16 18 22 23 24 21 17 20 22 25 27 30 33 34 35 36 36 35
13 12 11 9 5 3 3 5 5 6 10 16 16 19 20 20 17 20 19 17 20 24 28 29 31 33 35 36 38 39 40 40
10 11 10 8 4 1 3 5 8 12 16 15 17 18 19 19 17 17 19 23 27 30 30 31 32 34 36 39 40 41 43 44
5 6 4 1 2 5 7 11 13 15 17 17 17 17 16 15 17 20 22 26 28 29 31 33 35 36 39 41 44 45 46 45
2 3 4 1 5 10 12 15 15 14 15 15 15 14 17 18 21 23 26 29 31 34 36 37 39 39 41 44 46 47 48 47
7 8 7 7 10 13 14 14 15 14 11 12 16 17 20 23 26 29 33 36 38 40 40 40 41 42 44 47 48 48 48 48
10 12 12 13 11 13 14 15 12 13 15 17 20 24 27 30 34 37 39 41 43 44 44 44 44 45 46 48 49 48 47 47
14 16 14 10 11 13 10 10 14 18 21 26 29 32 34 36 39 41 43 46 47 47 49 50 50 49 50 51 51 49 47 48
16 17 16 11 13 13 12 17 20 26 28 32 35 38 40 42 44 46 47 49 50 51 52 52 52 53 54 54 54 51 50 52
16 14 17 13 14 15 19 21 25 30 33 37 39 43 44 45 48 50 51 51 52 52 52 52 53 56 57 58 56 54 58 59
12 11 11 14 16 19 24 27 31 34 37 40 43 45 47 49 50 51 52 53 54 54 55 53 56 60 63 61 58 60 64 68
10 9 13 16 19 23 27 31 34 38 41 43 45 48 49 50 52 53 54 54 53 54 56 56 56 59 63 62 64 67 70 72
11 15 18 22 25 28 31 34 38 42 45 47 49 51 52 53 53 55 58 59 59 61 62 62 63 65 67 66 69 72 76 79
16 19 23 27 31 33 35 40 42 46 48 51 55 54 51 53 49 58 61 61 57 66 67 65 65 67 66 69 74 77 80 84

GFSFLT2_500_spd_045.txt.gz
Wind_Speed
48 44 49 50 39 37 35 46 45 34 7 5 9 13 16 18 18 18 17 21 26 28 27 24 24 21 22 22 23 23 24 27
40 46 48 51 41 37 45 44 30 18 16 11 9 12 15 18 17 15 19 25 27 27 25 26 26 27 26 27 28 28 29 32
30 34 34 42 40 48 47 28 16 16 14 14 14 14 11 11 13 20 24 26 25 21 22 23 25 26 29 32 32 33 33 30
41 42 37 28 23 35 30 21 21 17 11 8 6 9 11 15 19 21 24 17 16 21 25 26 28 29 23 25 25 27 29 32
26 29 27 24 28 24 22 21 18 15 10 10 11 13 14 15 14 16 17 16 18 23 27 25 21 22 24 27 29 31 33 36
39 39 29 25 21 20 15 13 11 9 8 7 11 13 15 14 14 17 19 18 24 27 25 21 24 26 27 29 33 34 36 37
17 17 22 20 17 14 11 9 9 7 7 9 10 11 14 16 18 19 23 24 24 25 23 26 29 31 34 35 37 38 39 39
16 13 13 14 14 12 9 7 5 5 7 10 15 14 18 17 19 20 17 16 20 24 27 32 35 36 36 37 38 40 40 39
13 11 11 10 12 9 6 3 5 7 10 14 15 17 18 17 18 15 18 21 25 29 31 35 36 37 39 41 41 42 41 41
11 10 9 7 9 4 2 4 6 11 13 15 17 15 14 14 17 19 22 26 30 33 36 39 40 42 43 44 44 45 43 44
10 8 3 6 4 3 6 7 8 11 15 15 13 12 15 17 21 24 27 31 34 37 40 41 42 43 44 45 46 45 46 46
5 3 2 1 5 6 8 9 11 12 10 11 13 14 20 23 27 30 33 35 37 40 41 42 45 45 46 46 47 46 46 47
3 3 4 4 5 7 10 11 11 9 12 14 17 21 26 28 30 34 36 38 42 44 44 45 48 47 47 47 48 48 48 48
2 3 3 4 6 7 9 9 9 13 15 20 23 26 30 32 35 38 40 44 46 46 48 48 49 50 50 50 50 51 53 55
6 7 3 4 6 8 9 8 14 18 21 26 29 32 34 37 41 43 46 48 49 49 49 50 50 49 51 51 53 53 53 54
10 10 7 5 7 10 13 14 19 24 29 33 35 37 40 43 46 47 49 50 51 51 50 53 56 56 56 56 57 58 60 61
11 11 10 9 10 14 17 20 24 30 34 37 39 41 45 49 49 49 50 51 51 52 53 59 60 58 59 63 66 63 65 65
11 9 12 12 15 18 22 25 30 34 37 40 43 44 49 51 50 47 48 52 52 54 59 61 60 60 62 63 70 69 72 71
10 11 14 14 18 23 28 30 34 36 41 46 43 48 49 50 50 52 52 56 50 62 63 66 62 65 67 68 72 73 73 74
12 16 17 20 23 27 32 35 40 41 47 48 48 47 51 53 51 52 46 65 61 65 66 61 65 68 68 70 72 72 76 78

GFSFLT2_500_spd_048.txt.gz
Wind_Speed
38 43 29 42 39 46 28 42 48 40 39 36 24 11 9 12 14 17 21 20 20 21 24 28 29 28 27 30 26 23 23 24
44 44 48 48 49 43 51 40 43 41 34 20 9 8 10 11 13 16 17 18 20 23 26 28 25 26 24 25 27 25 23 23
31 43 48 42 45 40 39 54 49 34 23 18 11 8 7 9 13 16 17 18 24 27 23 21 24 26 28 25 23 23 25 29
33 39 38 34 36 24 32 43 35 22 18 13 9 9 8 9 11 11 16 21 25 21 22 22 26 24 19 20 26 29 29 32
32 29 44 41 34 22 25 30 21 17 15 14 12 9 9 10 13 18 20 22 22 23 23 25 26 21 24 26 29 32 34 36
15 18 25 31 22 25 30 28 21 19 14 8 6 8 12 15 15 17 17 18 23 25 25 25 21 24 29 32 33 34 34 35
24 22 29 32 21 24 25 18 15 12 11 9 8 10 12 16 15 17 21 21 21 21 21 22 25 29 32 35 36 36 38 40
16 15 18 20 15 12 13 14 11 10 7 8 11 15 14 16 16 17 20 18 17 21 24 27 30 32 35 38 40 42 44 45
18 16 14 8 11 8 6 5 5 4 9 11 13 13 14 14 15 15 16 19 22 26 29 30 34 37 40 43 44 46 47 47
12 13 11 11 11 8 6 6 7 9 9 11 11 12 11 14 14 17 20 24 27 30 33 35 39 41 44 46 47 49 50 49
11 10 9 10 12 6 6 8 8 8 9 11 9 9 11 14 18 21 26 27 33 35 37 41 43 45 46 47 47 48 48 49
10 9 7 7 7 9 9 10 11 9 8 7 8 11 15 19 23 26 29 33 38 40 42 45 47 48 49 49 48 49 49 47
9 7 6 6 8 10 9 11 10 10 8 10 14 16 20 24 27 30 34 38 42 44 45 46 46 46 45 46 47 49 51 50
7 6 5 6 9 9 10 9 10 11 12 15 18 22 25 29 33 36 39 43 46 46 46 48 49 49 50 50 54 55 53 52
7 6 8 8 10 11 10 9 11 14 18 21 23 28 32 35 37 40 42 46 47 48 47 48 50 52 50 54 61 60 58 58
10 9 11 11 12 13 11 11 14 19 23 23 31 32 35 39 43 43 47 48 45 47 50 51 52 52 56 63 65 64 59 60
12 13 12 12 14 12 13 15 18 22 25 30 32 39 42 46 49 45 48 50 48 50 55 51 56 59 61 65 66 64 64 66
16 14 14 13 11 13 16 19 22 24 29 31 41 42 45 51 46 48 51 54 50 50 50 50 62 65 61 69 67 66 67 69
15 12 12 14 15 15 20 23 26 30 32 35 43 45 49 46 45 45 56 47 47 59 64 58 64 66 69 69 70 71 72 74
13 12 14 15 16 20 24 28 31 34 36 41 41 44 45 47 42 52 48 54 58 59 60 64 64 67 68 70 71 73 77 80

GFSFLT2_500_spd_051.txt.gz
Wind_Speed
33 35 37 35 33 35 33 26 32 26 30 37 39 37 36 28 15 16 15 16 17 17 20 19 22 24 25 22 21 22 22 23
34 36 35 33 54 37 40 32 41 32 29 39 37 25 22 17 16 17 16 15 16 16 18 21 23 25 23 23 22 20 15 18
32 26 37 41 41 47 57 44 44 35 36 37 22 14 14 15 12 11 12 13 13 15 21 23 23 21 21 20 19 20 23 25
30 31 18 31 35 38 42 57 42 44 44 35 19 16 16 11 8 7 8 11 14 20 22 25 22 22 21 18 20 25 29 32
20 27 31 30 32 41 42 37 34 37 36 16 16 16 13 9 7 9 12 16 20 22 25 21 25 24 19 21 24 29 32 34
31 32 31 33 37 36 30 28 31 29 23 21 19 15 11 8 11 13 17 18 18 16 21 22 20 17 23 27 29 32 35 36
24 24 22 19 21 27 30 30 31 18 14 11 11 10 12 14 12 14 15 17 18 16 14 15 19 23 27 30 34 37 39 41
15 22 25 28 24 25 21 21 17 12 14 16 14 12 10 13 12 16 14 14 12 15 17 21 24 28 31 34 37 42 44 45
19 22 20 19 18 16 14 15 14 14 13 12 11 8 12 15 11 11 12 12 16 20 23 26 29 32 35 38 41 44 45 46
19 18 17 15 13 10 8 5 7 9 9 8 8 10 11 12 11 11 13 17 22 25 28 31 33 37 40 41 43 45 46 47
13 13 12 11 11 11 9 11 12 11 11 11 10 12 13 10 11 15 18 23 26 29 32 35 38 41 42 43 44 47 48 49
9 8 10 13 13 10 10 9 10 11 12 10 10 10 10 12 15 20 24 27 31 33 36 39 42 44 44 45 47 48 48 46
9 9 9 9 9 10 9 11 11 12 11 9 11 13 12 15 20 25 29 32 35 36 39 42 45 43 44 48 46 44 46 49
12 11 10 8 9 10 11 12 12 12 11 13 14 16 17 21 26 29 31 35 40 38 42 44 44 45 47 51 51 50 52 54
12 9 8 9 10 12 13 13 13 13 16 17 19 21 25 28 32 35 37 41 44 41 45 46 50 49 50 54 54 54 61 61
12 12 12 13 15 15 15 12 13 16 19 20 24 29 31 31 36 37 40 44 43 44 46 49 49 51 53 64 57 59 63 63
14 14 13 14 15 16 15 14 15 18 22 22 24 30 34 35 41 40 44 44 45 45 47 46 52 53 55 59 64 63 65 62
18 18 16 17 17 18 18 17 19 21 23 25 29 31 33 38 42 41 46 45 46 47 47 52 62 61 62 67 68 67 63 65
19 17 16 15 16 16 20 21 23 24 28 29 30 31 32 40 42 45 48 47 43 46 54 67 63 66 67 71 73 68 68 68
17 15 18 16 18 22 22 22 24 28 29 30 28 29 33 42 45 49 47 50 57 61 64 68 64 71 72 73 71 72 72 75

GFSFLT2_500_spd_054.txt.gz
Wind_Speed
32 36 28 27 30 30 33 34 32 35 27 26 29 30 33 33 28 24 23 23 22 19 15 16 15 18 19 20 19 17 19 17
33 25 22 25 31 34 25 44 39 37 28 30 31 34 35 36 31 25 21 19 16 17 17 15 15 18 20 15 17 16 12 15
30 30 26 20 29 33 37 43 61 41 41 40 26 34 32 29 21 19 16 13 14 14 13 16 20 21 20 17 20 17 18 21
29 27 25 24 23 30 38 45 49 43 52 45 30 34 26 21 20 13 13 15 11 12 16 21 22 24 20 21 20 18 22 25
27 29 23 32 21 32 32 42 28 35 41 52 51 31 23 16 11 12 10 11 16 17 18 18 18 18 19 17 19 23 26 28
28 28 21 24 37 28 37 35 38 41 36 37 28 25 16 17 14 15 14 14 15 16 18 20 15 13 16 19 23 27 30 34
25 25 30 29 35 36 41 44 36 33 38 26 19 13 14 15 14 11 14 14 16 15 14 13 13 16 20 24 28 32 35 37
21 26 29 33 35 28 27 31 34 26 18 19 19 16 12 11 12 14 13 15 15 11 12 15 18 22 25 29 33 36 39 41
17 28 33 32 36 26 27 30 18 21 16 14 14 15 11 10 15 16 13 13 11 12 16 19 22 26 30 33 37 40 41 42
14 14 19 18 21 20 17 15 13 13 16 15 14 15 14 14 14 14 11 10 12 16 20 23 27 30 33 36 39 41 41 41
17 17 18 18 17 14 11 10 10 10 10 12 16 14 13 14 10 10 10 13 17 21 25 30 33 34 37 39 41 41 40 45
7 8 11 12 11 11 10 10 11 11 12 13 16 9 12 9 10 12 15 18 21 25 28 33 36 38 41 42 41 43 45 47
5 8 9 10 10 8 10 11 12 13 14 16 12 13 12 11 14 18 19 23 27 29 33 38 39 41 45 41 41 46 49 53
8 8 8 8 9 11 12 12 12 13 14 16 16 12 16 17 20 23 25 28 32 36 37 40 40 44 45 44 47 57 55 52
9 8 8 9 11 12 12 14 12 11 13 16 15 19 20 24 25 28 31 32 35 38 39 40 44 45 46 48 53 60 62 60
13 13 12 12 12 14 14 14 14 14 14 18 20 21 23 27 32 35 37 37 41 39 41 44 48 46 47 49 53 62 64 63
14 15 15 16 15 17 19 17 17 16 15 17 23 25 25 29 32 35 35 38 40 43 46 48 50 52 53 56 61 66 63 67
17 17 17 18 17 18 21 22 21 20 21 21 25 29 31 33 35 36 35 38 44 48 51 56 56 56 58 57 65 63 67 70
20 19 20 19 18 17 20 21 27 25 25 24 29 32 34 34 34 37 38 43 48 52 57 53 58 62 63 70 62 68 69 73
22 22 20 18 19 20 20 22 22 19 25 29 31 32 31 36 35 35 38 47 50 54 58 60 63 65 64 61 72 76 75 74

GFSFLT2_500_spd_057.txt.gz
Wind_Speed
36 24 27 31 30 30 29 30 29 31 33 32 26 25 26 26 27 30 30 27 26 21 19 16 14 15 16 17 18 16 16 15
33 38 32 45 31 29 28 40 27 25 34 39 38 33 31 34 30 33 35 28 24 18 18 15 15 15 16 17 18 18 16 15
33 36 20 27 23 17 21 26 37 34 38 41 41 41 34 37 31 30 29 24 11 13 15 16 13 16 18 18 18 20 17 16
27 29 19 19 19 19 16 35 46 41 39 38 52 47 39 34 27 22 12 14 17 11 15 16 15 17 21 18 18 15 16 19
31 22 23 23 22 20 23 30 31 47 55 47 52 53 38 30 22 21 14 8 11 14 14 18 14 16 18 17 14 17 20 23
27 27 25 24 26 29 31 27 36 40 29 40 47 35 40 31 21 13 12 14 13 13 15 16 16 15 12 14 18 20 23 26
30 28 25 22 22 31 27 29 29 27 31 35 32 38 29 20 13 12 16 14 14 14 16 13 11 12 16 18 21 23 27 31
24 22 22 22 26 26 27 29 28 33 37 31 30 19 18 15 15 15 13 12 15 14 11 8 13 16 18 22 25 29 32 35
15 18 24 22 28 30 31 39 37 27 28 21 21 19 17 16 12 11 13 15 14 9 10 13 17 19 22 26 28 31 34 37
12 22 24 25 26 34 33 25 20 19 18 18 18 15 10 13 14 14 14 12 10 10 14 18 19 23 27 29 31 35 38 40
12 8 15 25 22 20 20 18 16 11 8 9 7 11 15 14 13 10 11 11 13 15 17 20 23 26 29 33 34 38 42 40
7 9 15 16 15 14 14 11 6 4 5 5 12 16 18 12 12 12 12 13 16 18 21 24 27 31 34 33 34 39 41 43
3 5 4 6 6 7 7 7 7 8 9 11 14 15 15 14 13 13 14 17 20 25 26 28 33 35 38 38 40 38 40 45
4 2 0 1 1 2 4 6 8 10 11 15 15 15 18 15 16 17 19 21 26 29 31 31 34 33 35 39 44 49 50 52
8 7 6 5 6 7 8 10 10 11 12 14 16 17 18 20 21 24 25 28 33 36 38 36 38 37 42 46 50 51 56 60
9 9 9 10 11 11 11 12 12 15 15 14 15 18 22 21 26 24 31 33 35 37 38 38 42 43 45 50 52 55 58 63
10 11 12 12 13 14 16 17 19 17 17 18 18 19 21 22 24 27 33 37 40 39 38 40 45 49 51 56 56 60 62 63
14 14 15 15 16 18 19 21 23 22 22 22 23 21 24 27 30 32 37 37 37 41 41 45 48 53 55 60 62 67 66 69
19 17 16 17 18 17 19 20 22 23 26 29 29 25 28 32 36 38 44 34 34 44 45 47 49 56 59 63 69 66 69 69
20 20 21 19 17 16 26 20 18 21 21 17 24 29 32 35 35 37 39 32 39 43 50 46 52 60 62 69 74 74 73 74

GFSFLT2_500_spd_060.txt.gz
Wind_Speed
19 33 33 34 39 35 36 33 32 33 33 31 30 28 27 26 20 23 21 23 28 26 26 22 17 14 12 11 13 14 12 14
31 29 19 36 46 37 37 31 31 35 35 31 31 22 30 34 30 26 26 27 30 32 28 15 13 13 11 13 14 13 14 14
33 34 32 24 15 32 40 38 34 33 34 34 24 23 29 36 36 34 31 30 27 28 15 8 12 11 13 14 14 15 13 12
31 27 29 24 16 13 8 8 21 28 32 34 31 30 32 31 38 39 38 23 18 13 10 12 12 13 15 15 14 14 11 11
26 30 29 14 15 19 17 18 19 20 37 37 45 45 44 56 47 44 30 18 10 11 11 10 13 15 16 14 13 10 12 15
26 19 17 19 25 22 21 21 31 23 26 37 27 35 32 43 32 29 29 14 12 10 10 11 14 16 15 11 10 13 13 17
21 20 22 27 25 25 24 24 23 24 19 23 20 23 28 33 35 25 16 12 11 12 12 11 13 12 11 12 14 16 17 20
20 20 26 26 24 29 25 22 25 31 31 31 22 25 28 32 22 20 17 12 13 13 11 11 10 10 13 14 17 19 21 23
16 19 20 21 17 17 21 24 28 31 28 28 20 17 23 18 21 17 14 13 13 12 11 10 11 13 16 17 18 21 24 28
10 15 17 18 17 17 21 24 27 27 23 15 14 17 19 18 14 13 10 10 13 11 11 13 15 16 18 19 21 24 27 29
3 12 20 22 19 24 29 26 16 12 14 16 17 12 11 9 11 9 10 13 13 13 14 15 18 20 22 23 26 28 29 31
17 20 17 10 12 13 15 19 19 17 15 11 5 2 8 12 12 12 13 15 14 16 17 19 20 24 26 25 26 27 31 34
12 11 12 11 11 12 14 14 9 7 4 3 2 6 10 16 16 14 14 15 17 20 20 24 26 28 32 31 29 29 33 38
9 10 9 10 10 9 8 5 3 3 4 4 6 11 11 11 14 14 16 19 20 23 24 28 33 36 38 40 35 35 42 45
7 9 11 11 10 10 10 8 6 4 5 7 8 12 13 12 14 18 21 24 27 30 30 32 36 39 37 40 41 42 46 51
6 8 7 8 10 11 10 8 6 7 8 10 11 11 13 15 18 18 21 26 29 28 33 37 39 38 42 40 46 45 51 55
6 7 9 10 12 12 13 13 13 12 11 12 13 15 16 17 19 22 23 27 31 32 31 41 36 43 47 49 50 52 56 60
9 10 11 11 10 12 15 16 16 15 14 15 19 19 20 21 24 26 29 31 30 36 35 30 33 43 47 51 52 56 58 60
12 12 12 12 11 13 16 16 16 16 13 11 17 10 13 21 27 30 33 35 35 37 42 39 33 46 50 47 52 57 60 67
12 13 12 12 13 15 14 19 17 16 11 16 19 19 19 25 27 32 34 32 36 32 30 36 35 41 49 54 55 62 72 77

GFSFLT2_500_spd_063.txt.gz
Wind_Speed
33 40 39 47 46 52 48 57 43 46 36 33 32 31 28 28 25 22 20 21 17 18 23 26 26 18 21 12 8 9 7 8
27 37 29 44 49 32 46 40 40 35 34 34 33 32 29 23 23 27 29 24 21 23 24 23 23 17 15 11 6 8 8 9
27 28 34 26 21 21 27 35 51 39 40 34 33 31 27 20 18 23 26 28 29 27 24 21 20 16 16 11 8 9 9 10
19 18 23 27 29 14 11 20 22 39 39 37 35 34 30 29 26 30 29 32 34 28 22 12 9 11 10 10 10 11 10 10
17 18 18 19 21 20 14 16 9 18 24 25 25 43 36 35 38 30 28 33 30 23 16 10 13 12 10 12 9 11 9 11
18 16 17 20 22 17 13 14 16 14 13 16 16 24 32 41 35 25 26 26 21 14 13 15 13 12 12 13 9 9 10 11
19 15 18 18 17 19 19 20 17 16 17 18 26 15 15 16 22 23 26 25 17 16 15 13 11 10 12 13 12 10 14 16
11 14 18 23 21 22 21 22 15 17 14 14 21 20 24 18 18 22 27 20 19 15 12 11 9 12 11 12 14 14 16 17
12 12 16 17 22 22 18 22 22 14 12 20 20 23 13 12 15 25 22 20 15 12 11 10 11 12 12 14 15 18 16 15
12 15 16 17 15 15 13 13 11 13 17 22 22 13 9 10 18 23 19 13 12 11 12 12 14 14 14 16 17 19 19 20
6 10 12 15 14 15 15 16 14 19 19 18 13 8 8 17 22 17 13 11 13 15 16 16 16 15 15 17 19 23 24 22
12 2 10 14 16 19 17 14 13 16 15 16 17 15 16 16 16 14 13 15 17 17 17 17 17 15 19 21 24 27 27 27
14 15 20 18 16 18 20 18 18 18 17 13 11 9 5 7 12 15 15 16 17 17 19 19 18 20 25 28 30 32 33 34
13 14 14 14 15 14 11 11 12 10 10 9 6 4 6 3 8 15 15 17 15 18 19 21 24 27 28 31 35 34 33 34
9 10 10 11 12 12 10 9 10 7 5 4 4 3 6 7 4 7 12 13 19 22 23 25 30 28 34 33 31 31 33 37
6 8 9 9 8 7 7 7 8 3 1 3 4 3 5 8 9 10 11 12 15 18 25 29 28 33 38 38 36 40 42 39
5 6 7 6 5 5 5 5 4 2 2 3 6 6 9 9 10 12 14 17 20 23 26 30 33 35 33 35 36 43 41 43
3 4 4 4 5 6 7 9 8 6 6 6 7 10 12 13 13 16 16 20 23 27 29 30 33 36 33 36 35 41 45 55
5 5 6 8 8 9 8 9 8 6 7 8 6 7 7 14 15 15 18 23 24 26 28 30 29 30 32 35 31 38 48 53
10 11 12 13 13 13 12 12 10 9 11 9 11 12 11 13 16 18 22 25 28 29 32 30 33 36 36 37 39 44 51 58

GFSFLT2_500_spd_066.txt.gz
Wind_Speed
33 38 38 64 59 48 52 50 49 47 42 39 38 38 30 26 25 26 27 24 23 22 23 25 21 24 21 18 15 14 11 9
25 30 31 33 37 58 48 41 51 50 40 37 40 38 32 28 28 27 23 25 28 24 21 21 16 18 16 22 13 13 11 10
22 23 32 50 19 26 40 53 55 49 47 35 42 33 32 29 30 25 12 10 16 26 26 26 22 17 15 18 15 12 11 11
16 19 28 34 40 23 6 21 40 43 43 45 44 34 33 31 30 29 24 15 22 21 27 31 26 17 17 17 14 11 12 12
15 19 17 17 22 26 20 15 18 25 37 38 35 32 32 29 33 31 31 26 25 17 25 26 21 14 16 15 12 13 13 13
21 21 20 18 13 9 8 9 16 18 19 20 25 24 22 17 22 37 29 26 22 18 20 19 18 17 14 13 12 11 12 14
23 24 22 19 14 16 10 12 13 11 12 16 15 15 13 12 8 20 19 25 22 15 19 19 18 16 14 14 12 14 16 16
20 22 25 21 17 24 21 21 16 14 16 20 21 18 18 16 17 21 16 17 17 21 21 16 14 13 13 15 16 17 17 17
18 15 19 22 22 24 20 19 20 21 18 20 17 11 14 17 20 18 15 13 21 23 18 16 14 15 15 17 16 17 18 18
9 16 16 16 17 21 20 18 20 22 18 19 21 16 18 18 18 16 12 18 24 20 17 16 15 16 17 16 16 16 18 20
5 8 11 14 18 20 18 16 14 16 18 17 18 19 21 21 19 13 19 23 19 18 18 17 18 18 17 17 17 19 20 21
8 3 9 12 14 16 19 14 21 19 18 16 20 22 21 20 16 23 20 19 19 20 18 18 18 18 16 17 20 23 26 28
4 4 4 10 9 13 20 21 19 15 15 19 20 20 19 19 22 20 20 22 21 20 19 21 20 18 19 21 22 26 28 31
11 13 15 15 12 9 8 12 13 15 19 19 17 18 18 15 16 16 16 20 20 17 18 19 21 22 24 26 29 31 33 34
8 11 13 12 11 10 11 10 11 12 10 11 12 14 14 10 10 13 12 16 22 23 20 20 24 27 28 27 33 36 40 34
7 8 8 9 10 10 12 11 10 9 9 8 9 10 10 11 11 11 13 12 12 11 16 19 26 28 28 29 32 36 33 37
7 6 4 5 6 7 8 7 6 6 6 8 9 9 11 12 12 11 11 13 14 15 18 22 25 29 27 31 33 36 36 35
4 4 5 7 6 6 8 6 6 7 10 10 10 13 13 15 15 15 15 16 15 16 18 21 25 27 30 30 29 31 33 35
5 6 6 6 5 6 7 8 7 7 8 10 10 12 16 12 14 13 12 14 16 18 20 22 27 29 29 31 35 37 36 37
7 9 10 10 10 12 10 10 6 7 7 9 11 14 13 14 16 15 12 18 20 20 23 26 28 29 31 33 34 35 37 40

GFSFLT2_500_spd_069.txt.gz
Wind_Speed
30 28 31 40 44 47 59 53 52 51 45 45 43 38 36 33 29 22 21 22 21 22 22 23 27 26 24 24 21 15 18 16
33 30 29 30 39 24 39 44 45 42 45 40 38 37 34 31 27 24 24 23 22 23 25 25 22 24 25 21 18 19 17 16
27 28 21 21 20 36 46 42 44 43 47 50 45 40 37 35 31 30 25 22 23 19 17 24 27 25 24 22 19 18 17 17
19 22 20 20 23 40 40 43 42 45 42 46 46 42 37 30 33 26 26 28 19 21 17 22 23 26 27 26 18 20 21 19
16 17 14 13 12 18 33 34 26 44 44 46 38 40 38 37 28 27 31 35 31 27 24 21 21 21 25 22 21 20 20 19
18 19 18 14 10 10 9 12 15 8 36 30 34 40 41 32 24 23 22 30 30 28 26 22 16 18 20 20 22 20 18 17
20 19 19 16 16 12 7 5 2 15 22 17 16 35 26 22 23 28 23 22 35 30 28 22 17 21 23 23 22 20 18 20
17 17 16 16 17 16 17 14 18 17 12 18 17 22 23 17 17 15 15 22 26 25 23 18 20 23 23 23 20 20 20 20
12 15 12 13 17 16 24 24 22 17 18 20 24 20 21 18 19 20 20 24 23 23 19 19 22 22 22 21 20 21 19 18
9 11 12 11 17 17 20 23 22 22 23 23 20 20 22 18 18 20 23 25 24 20 22 23 21 20 19 19 19 18 18 18
9 8 13 20 19 26 22 25 23 21 24 27 23 27 24 22 21 24 26 25 21 22 24 22 20 20 21 20 19 18 18 18
8 4 10 18 18 21 21 22 19 17 20 22 22 23 24 22 23 27 27 22 22 24 21 21 20 20 21 20 20 20 21 22
9 6 6 12 11 15 18 20 21 20 18 22 26 23 23 27 28 30 26 28 23 22 21 21 20 20 22 21 21 23 25 28
9 10 13 13 10 9 6 15 23 24 22 23 24 22 22 23 25 26 27 24 22 18 17 18 20 21 20 22 23 26 29 32
3 6 7 8 9 10 10 12 15 14 14 13 16 18 19 18 18 20 21 21 19 18 19 20 22 22 24 27 27 30 31 33
4 4 4 5 7 7 7 8 13 15 15 17 19 20 18 15 16 20 21 16 12 17 23 24 24 28 29 30 33 36 35 35
7 6 5 5 7 7 7 8 9 9 9 10 13 14 13 14 15 15 16 17 15 14 14 18 21 24 26 27 31 33 33 35
7 7 5 6 8 10 10 8 9 11 13 14 13 14 14 15 16 17 18 18 17 18 20 20 21 23 26 28 30 31 31 31
6 5 5 5 7 8 8 8 9 12 13 13 11 12 15 16 20 22 21 20 19 21 23 22 21 25 27 30 32 32 33 33
6 5 5 5 7 10 11 12 12 12 12 10 11 13 15 17 20 23 24 23 21 23 24 24 23 27 27 30 33 34 33 35

GFSFLT2_500_spd_072.txt.gz
Wind_Speed
26 25 34 34 26 35 39 38 42 40 36 39 41 40 41 30 26 21 19 19 19 20 21 21 21 20 23 25 22 19 21 21
26 29 37 36 31 29 33 39 36 34 38 40 45 43 38 34 29 23 20 22 20 24 22 21 23 25 26 17 24 25 21 19
17 25 26 32 27 18 35 37 45 42 31 47 42 46 51 41 32 24 22 25 26 25 22 24 20 22 26 22 23 24 19 22
11 11 11 12 18 20 22 23 39 41 51 45 41 40 45 37 29 26 26 29 28 26 23 18 16 21 24 24 24 24 23 23
10 11 12 15 17 19 17 6 29 49 41 39 40 40 37 34 31 27 29 29 29 28 30 25 26 24 24 25 23 25 22 25
14 15 17 18 19 13 3 14 16 32 39 39 41 41 40 34 32 34 30 32 29 28 32 26 31 27 25 24 23 23 27 27
16 18 22 20 21 14 6 21 8 8 18 37 39 30 36 44 37 33 37 31 23 19 28 30 26 26 25 22 21 23 24 23
17 18 18 18 18 16 12 11 13 14 17 23 22 21 20 42 35 28 30 27 26 22 28 28 27 25 24 22 21 22 21 21
14 16 16 16 16 17 17 25 28 31 29 25 21 21 20 19 22 27 23 19 22 21 24 26 23 23 24 22 21 21 20 19
10 15 14 14 16 18 19 27 26 26 21 18 24 22 23 23 25 25 23 19 21 21 24 24 23 24 25 23 22 23 21 20
11 11 13 18 12 12 17 25 25 20 18 18 19 24 25 24 25 20 19 19 24 23 26 23 23 24 23 22 21 21 22 20
15 7 12 18 18 18 22 12 19 19 18 24 27 26 23 25 22 21 17 21 25 28 27 24 24 24 22 19 20 19 20 22
15 3 9 13 21 20 27 23 28 21 21 26 26 27 27 27 23 22 20 26 32 28 25 23 26 25 21 19 22 22 22 24
8 10 6 8 10 14 20 25 27 28 33 26 29 30 29 30 28 26 28 33 33 22 20 22 23 21 20 22 24 22 25 26
5 6 9 9 11 14 16 25 29 32 32 29 29 30 29 28 26 30 32 31 22 19 21 22 18 19 21 22 22 23 26 29
4 1 4 5 6 8 8 10 14 20 24 23 22 21 22 24 23 22 21 22 21 21 20 20 23 25 23 24 24 26 30 34
5 5 2 2 2 4 6 10 11 15 15 15 13 14 16 17 18 21 20 21 20 18 19 23 24 24 27 28 28 28 30 32
6 5 5 5 3 2 3 6 10 12 13 13 14 14 14 16 18 18 21 23 23 22 20 22 22 24 25 25 27 31 34 34
8 6 4 4 4 3 4 5 6 9 12 14 14 14 16 20 21 23 23 25 24 25 24 24 24 25 28 29 30 33 34 34
6 7 6 6 6 8 7 8 7 7 9 12 14 15 17 17 18 19 20 23 25 25 25 24 25 28 31 32 33 32 35 39

GFSFLT2_500_spd_075.txt.gz
Wind_Speed
22 27 26 24 20 21 24 28 32 28 27 27 27 30 35 32 33 27 24 20 19 16 17 17 18 18 16 18 21 23 23 24
20 21 24 21 23 28 30 29 27 33 26 25 25 28 33 38 34 29 28 23 20 18 19 18 20 20 19 21 21 19 24 23
6 11 17 16 25 29 28 20 21 25 40 32 28 27 37 41 36 32 30 26 24 21 21 21 21 23 21 23 23 21 22 23
7 8 4 9 5 14 17 19 24 32 38 39 25 34 41 48 43 37 32 29 24 23 23 22 21 23 19 20 25 23 21 25
10 10 10 10 12 17 19 15 18 35 48 41 39 33 39 44 44 38 35 30 27 24 27 23 22 24 24 25 23 24 23 20
15 17 15 14 15 16 15 11 21 20 33 41 43 36 42 48 49 41 40 32 25 27 26 24 24 27 27 30 26 23 25 25
16 16 15 15 15 15 15 10 13 34 41 41 37 36 42 38 42 46 40 33 27 29 29 26 24 27 25 27 23 20 23 22
15 16 18 16 16 14 15 14 22 26 29 34 34 36 39 42 39 39 37 35 33 32 30 28 26 25 26 26 22 22 23 23
11 12 19 19 19 16 17 17 20 35 31 31 28 32 33 30 24 28 37 29 34 35 30 29 25 25 24 23 22 21 21 22
11 16 21 19 17 16 18 17 20 23 25 24 27 27 24 22 21 22 43 34 30 24 28 26 21 22 22 22 20 20 19 21
14 18 19 11 11 17 18 19 23 17 25 24 20 22 20 19 19 15 24 26 25 21 21 20 21 22 22 22 22 20 21 23
13 14 14 8 12 17 21 19 21 19 20 19 15 18 21 18 18 18 22 22 22 22 21 22 26 26 25 27 23 22 23 23
12 9 6 7 14 14 11 18 22 23 17 17 18 19 20 22 23 21 20 23 17 22 24 26 26 23 27 25 20 20 21 23
10 8 4 9 13 16 19 19 23 23 26 21 20 23 25 23 24 23 21 25 23 25 25 31 25 22 25 25 24 20 21 27
7 6 7 2 7 13 17 24 30 28 29 24 23 26 29 29 28 30 27 27 26 27 28 25 21 22 23 22 20 22 27 29
6 3 2 3 2 1 5 13 23 29 28 26 27 30 31 32 33 32 30 30 25 25 24 22 20 22 22 22 27 27 29 31
5 5 1 1 1 3 5 4 7 25 25 25 24 21 22 31 28 27 27 28 25 25 22 22 24 24 25 27 27 28 29 31
7 6 5 1 3 2 3 2 5 9 13 13 12 12 11 11 12 16 17 20 22 24 26 27 26 26 22 30 29 30 31 33
10 9 7 4 3 4 5 5 7 9 9 10 13 12 13 15 17 17 19 23 25 28 26 27 28 26 26 27 27 30 32 35
8 8 8 6 6 5 5 6 7 8 9 11 13 13 16 16 17 17 20 21 23 22 23 26 26 26 27 30 32 32 35 37

GFSFLT2_500_spd_078.txt.gz
Wind_Speed
24 19 22 20 20 20 18 27 26 24 24 30 33 30 34 32 44 38 31 31 28 24 21 18 18 18 17 15 16 17 20 19
23 13 21 22 20 19 19 22 26 23 24 30 37 31 32 36 29 34 33 33 29 26 22 18 18 18 17 17 19 19 19 20
20 9 13 19 24 22 23 22 24 23 19 23 33 34 30 35 28 39 36 35 30 27 21 20 19 17 17 19 20 20 21 21
15 12 5 13 18 20 19 20 19 18 23 21 31 27 30 31 29 43 40 35 33 29 25 22 20 20 20 19 18 15 18 22
11 11 11 13 12 14 16 16 18 22 25 37 42 39 33 30 36 46 42 36 33 30 27 25 22 22 19 20 19 24 22 21
16 15 15 15 14 12 16 19 23 23 35 37 44 38 30 36 36 41 44 35 38 32 29 26 23 23 23 25 21 27 30 27
21 21 19 18 17 17 17 21 22 16 31 42 49 45 44 43 34 42 51 44 40 33 29 30 28 26 26 29 29 25 25 25
20 22 22 21 20 20 21 22 19 11 28 39 40 42 42 35 34 38 50 46 45 40 32 28 29 29 33 31 27 24 25 25
16 17 18 19 20 23 23 24 19 18 23 38 41 48 40 39 35 45 46 51 49 42 34 30 29 37 35 31 25 24 26 25
17 17 19 21 22 23 23 24 24 19 32 30 34 41 36 40 39 44 39 51 45 40 38 34 35 38 35 29 26 24 24 26
13 17 21 22 22 21 21 23 22 19 19 34 31 39 36 31 35 27 35 28 28 39 33 33 33 34 29 28 25 23 24 25
14 17 19 18 16 16 21 21 19 17 12 14 27 24 27 18 18 24 22 21 23 36 31 26 26 24 26 26 25 25 26 26
6 11 11 9 14 13 18 20 15 13 14 19 16 13 19 20 15 16 14 16 19 23 27 27 26 26 26 26 26 27 28 26
5 8 4 7 8 12 13 11 15 18 20 15 19 15 12 14 13 17 16 18 19 23 25 26 26 26 24 25 26 27 27 24
5 6 4 5 14 13 19 20 16 18 20 17 14 13 15 16 19 20 19 22 22 26 26 26 28 24 24 25 24 23 25 25
3 4 4 2 2 4 7 16 20 21 22 18 18 21 17 19 23 25 25 24 24 27 27 27 27 24 25 24 24 22 23 21
3 3 2 2 2 1 1 3 10 21 28 25 23 22 21 23 29 31 31 29 28 29 30 27 25 24 24 25 27 24 25 32
7 6 5 4 3 2 1 1 3 4 16 19 20 25 24 23 22 25 25 24 24 25 26 23 21 24 22 25 26 26 29 33
10 9 7 5 3 3 3 3 4 4 6 7 6 10 14 15 15 15 15 14 15 18 18 18 25 24 26 27 30 26 34 33
11 7 6 5 4 2 4 5 6 8 10 12 12 11 13 14 14 14 13 12 14 16 20 22 25 27 26 27 29 32 34 35

GFSFLT2_500_spd_081.txt.gz
Wind_Speed
28 31 29 25 27 33 34 29 25 15 18 35 36 35 31 31 29 29 30 34 32 29 26 25 21 19 19 19 18 17 19 19
24 25 24 17 19 21 21 18 19 15 20 20 32 31 32 28 33 35 36 41 38 29 29 26 22 19 20 21 19 20 21 18
15 17 20 16 17 19 16 18 17 16 22 24 20 29 30 32 40 35 41 42 39 32 31 28 22 21 21 20 20 20 20 20
15 14 16 14 18 19 20 20 22 22 24 23 21 28 37 35 34 35 43 40 37 36 31 29 25 23 23 21 22 19 19 15
17 18 16 15 13 17 23 24 25 25 26 24 23 21 39 39 36 34 32 39 37 37 32 31 29 25 24 24 22 18 20 21
18 19 20 17 16 14 20 25 26 25 26 26 29 32 41 38 40 38 32 40 41 40 35 35 33 28 28 24 24 23 24 24
21 19 19 21 18 17 19 22 24 25 29 30 28 26 33 30 40 37 37 40 47 42 39 37 35 31 28 26 24 25 27 27
20 18 19 19 22 20 23 25 25 27 25 26 37 42 51 42 49 48 41 34 46 46 41 37 35 32 33 29 27 27 28 27
18 18 18 17 19 22 23 24 28 29 26 23 32 35 40 48 49 43 36 35 35 48 44 38 37 32 31 31 32 31 29 28
18 21 21 21 22 24 22 24 26 28 29 20 22 33 45 51 40 41 43 40 40 48 50 46 43 36 35 34 33 32 32 31
15 18 23 25 25 25 24 25 25 25 29 21 18 24 39 41 31 36 44 36 42 38 48 51 47 38 38 37 35 35 32 33
14 16 21 24 23 21 22 18 20 17 23 12 22 38 39 38 42 34 33 37 38 33 35 43 39 42 38 33 33 30 29 29
13 16 20 19 14 16 18 13 16 14 21 15 11 24 27 26 24 24 23 24 26 28 33 33 34 31 26 25 25 26 28 27
10 11 11 8 8 11 13 12 14 15 17 13 15 10 14 19 17 15 17 15 16 22 20 24 27 26 25 26 23 25 24 25
8 9 8 8 10 11 9 11 8 11 14 16 19 15 14 12 15 11 10 14 18 19 21 22 22 25 26 24 22 20 20 20
7 7 7 7 8 8 11 12 15 17 17 16 15 12 10 11 13 13 14 16 15 17 18 23 23 24 26 24 23 21 19 18
9 8 6 7 8 9 8 7 2 6 15 20 19 16 15 17 16 17 18 21 22 21 20 20 23 26 24 22 23 24 22 22
10 12 10 6 6 7 9 8 7 3 7 17 21 20 18 20 20 19 20 19 23 23 21 21 22 18 19 18 20 24 25 26
10 10 12 10 6 6 7 7 7 6 2 6 9 11 13 11 10 14 14 17 21 19 17 20 16 16 19 19 22 23 27 28
11 9 6 7 7 4 6 8 7 6 4 2 7 9 8 8 9 10 11 10 11 12 18 18 18 20 20 23 24 24 29 32

GFSFLT2_500_spd_084.txt.gz
Wind_Speed
27 26 25 21 25 29 27 30 28 35 36 40 39 30 33 31 35 28 26 29 30 28 29 26 21 21 20 21 21 21 18 17
23 20 20 17 22 22 19 32 26 25 23 34 33 29 31 34 33 29 33 36 31 32 30 30 25 23 21 23 22 20 19 17
19 15 17 17 21 20 19 13 16 20 22 30 31 32 35 32 37 33 31 25 34 35 36 34 25 25 23 22 22 21 18 19
18 17 15 18 16 18 13 16 18 19 24 19 18 23 26 27 30 37 35 34 35 38 41 36 28 27 27 22 23 19 20 19
19 19 20 16 16 16 16 17 18 19 17 22 21 21 23 20 23 31 37 34 39 42 42 36 32 30 28 24 23 21 20 20
20 19 19 18 16 14 16 19 23 23 20 20 19 21 20 25 27 26 32 41 39 44 44 35 35 32 29 27 26 23 20 21
21 20 19 18 16 15 15 15 19 21 20 22 23 25 30 22 29 33 35 31 31 39 40 37 37 36 32 29 29 23 23 24
21 20 17 17 16 18 19 18 16 21 24 24 25 28 30 30 34 41 37 37 35 33 40 39 39 40 34 32 29 25 27 24
19 18 15 17 18 17 19 22 21 22 26 25 27 31 34 34 34 41 38 37 37 38 43 44 41 43 37 33 32 28 31 31
19 19 19 18 19 21 21 22 24 24 24 25 28 32 30 34 41 44 40 39 46 38 35 49 46 45 38 38 34 32 28 32
18 19 19 21 21 24 24 25 27 29 25 24 24 30 23 33 48 51 51 44 42 45 39 39 40 49 42 42 40 35 33 31
18 20 20 23 22 19 23 25 22 27 23 25 18 28 20 24 28 28 40 37 41 40 38 39 39 43 49 45 45 40 36 30
18 17 18 22 21 13 14 16 18 21 16 27 24 25 22 16 23 27 33 37 34 38 38 39 34 34 42 43 43 35 29 23
14 14 16 19 16 8 8 12 13 16 14 5 16 15 19 23 33 35 36 33 32 32 34 30 21 26 30 33 27 26 23 21
13 12 14 16 16 12 6 7 5 5 9 7 11 14 15 21 27 28 29 26 24 20 18 16 23 28 29 27 25 24 22 18
12 13 14 12 12 13 10 8 9 12 13 12 10 17 12 14 18 14 11 13 7 7 10 16 20 24 22 23 23 18 13 16
8 11 12 13 10 9 9 7 5 5 11 18 14 14 12 10 9 4 7 8 9 9 12 13 12 16 18 19 19 17 22 25
8 9 12 12 10 8 8 8 7 4 5 14 18 17 12 15 13 14 12 14 13 15 15 16 18 20 20 18 19 17 18 20
7 8 10 10 9 7 6 7 8 7 6 5 17 19 20 18 18 19 19 18 18 17 16 19 21 19 14 17 21 20 17 19
13 9 8 8 8 6 6 7 8 8 6 1 5 11 14 14 13 14 13 12 14 19 22 22 22 21 19 19 21 21 21 23

GFSFLT2_500_spd_087.txt.gz
Wind_Speed
22 23 23 19 19 22 21 23 24 25 25 40 44 38 42 33 29 34 36 34 35 36 39 39 34 27 26 23 19 21 19 18
20 20 20 16 15 17 17 17 20 19 22 26 53 42 31 36 32 28 33 38 39 35 36 26 25 30 28 24 21 18 20 20
20 17 19 17 17 16 18 19 14 14 21 29 36 35 30 34 35 36 38 34 44 46 30 28 32 35 29 24 18 20 20 21
21 17 19 20 22 17 14 14 13 9 15 25 41 43 38 30 34 33 37 32 29 29 32 31 34 35 30 26 19 20 18 18
20 18 18 18 19 16 14 12 14 12 12 15 32 34 30 31 32 29 33 34 32 24 29 27 34 37 33 24 20 20 19 18
22 19 18 19 20 16 14 12 13 17 14 22 22 22 25 22 24 30 27 35 32 32 31 32 38 40 36 26 25 23 21 21
22 18 18 19 19 16 14 14 11 14 17 23 21 21 22 26 20 30 26 29 37 35 32 37 41 42 38 28 29 27 23 21
20 18 17 20 17 16 15 16 16 14 15 20 20 20 21 25 25 26 30 26 31 33 38 37 41 43 38 29 32 30 25 23
18 19 16 16 16 17 17 16 19 19 20 20 22 21 23 28 27 27 30 36 33 30 28 32 33 39 36 32 33 34 28 26
16 15 17 17 17 19 22 18 17 18 21 22 22 23 27 29 32 37 36 36 34 33 32 30 33 38 39 35 36 39 35 29
14 15 16 18 18 19 20 24 23 20 21 22 24 25 28 26 33 37 38 36 39 37 35 36 35 38 38 44 40 41 40 34
11 12 15 16 17 17 17 20 22 23 23 25 26 29 29 24 28 33 36 37 40 36 38 38 43 37 34 39 47 45 45 39
7 11 13 13 18 17 13 16 17 17 20 20 22 25 29 22 20 25 38 44 44 43 47 38 35 39 36 33 39 37 49 46
6 8 11 13 14 17 9 8 8 9 11 12 16 25 26 22 25 30 29 39 47 35 37 28 35 35 31 33 27 30 38 32
6 7 9 11 12 13 7 6 6 6 9 14 17 23 25 14 21 25 31 34 26 28 32 37 38 37 33 27 25 25 27 26
7 7 8 9 12 12 9 5 4 4 8 13 11 11 12 11 20 29 30 33 35 36 34 36 33 27 24 26 24 26 21 22
8 5 7 8 9 11 10 7 6 6 5 9 10 9 11 9 11 14 15 21 21 13 16 18 16 13 16 19 18 21 21 20
8 5 6 7 7 8 10 9 7 8 7 7 11 10 8 10 10 9 5 9 11 11 14 16 17 15 16 15 18 19 22 22
11 7 6 7 4 4 4 6 8 7 7 6 8 15 16 13 14 18 17 19 21 22 22 21 19 19 19 19 23 22 24 22
16 12 10 7 4 4 2 5 6 7 5 4 4 9 15 17 18 19 21 20 23 23 23 23 23 22 23 25 24 21 20 20

GFSFLT2_500_spd_090.txt.gz
Wind_Speed
28 26 24 21 17 15 19 19 25 29 28 32 39 42 30 27 37 33 33 36 28 31 33 35 39 34 30 30 27 20 20 21
28 25 24 21 17 14 15 19 22 23 26 27 36 36 41 40 35 37 31 35 30 30 34 38 38 35 35 30 22 22 19 18
29 24 23 22 19 18 18 20 19 21 22 22 30 29 39 44 28 29 33 36 37 34 34 36 35 39 34 26 29 23 19 20
28 22 20 23 22 19 18 20 19 16 20 18 18 29 39 38 33 36 37 32 40 36 33 35 40 35 30 34 32 22 21 19
26 25 22 23 21 19 18 20 18 14 17 12 14 22 41 37 33 34 30 33 31 35 34 40 40 25 30 31 30 23 20 20
24 25 21 21 19 19 19 19 18 15 13 12 8 30 38 45 36 26 28 29 32 32 28 28 28 27 28 32 33 26 23 21
23 21 18 19 18 18 18 18 18 15 9 16 11 23 32 37 33 27 33 32 28 33 34 34 27 27 28 31 34 27 27 22
26 20 17 19 17 16 16 18 17 18 13 11 16 16 16 20 27 23 24 29 30 32 34 34 33 30 27 34 37 32 29 25
27 20 16 16 16 15 16 18 18 18 18 15 13 15 16 21 25 27 23 30 27 28 31 33 33 32 29 31 38 34 32 29
25 18 17 16 14 15 15 17 18 20 18 19 16 17 18 18 22 22 28 27 32 31 28 28 35 34 29 30 34 36 35 33
20 17 16 13 12 13 14 17 18 21 22 20 18 17 20 24 27 28 28 29 30 31 34 33 34 27 22 26 34 37 37 36
17 14 12 10 10 11 14 14 17 18 21 22 22 22 25 26 28 30 29 32 31 36 36 38 38 34 27 30 34 37 38 43
14 12 10 9 10 12 14 12 14 16 18 20 22 24 26 26 27 27 26 29 29 33 36 39 39 36 32 39 38 40 32 35
12 12 10 8 11 12 14 11 8 7 11 13 15 18 22 27 28 28 24 22 25 32 33 40 36 39 39 30 30 32 31 29
13 13 11 9 10 11 10 11 8 5 6 7 12 16 19 21 22 25 28 22 23 24 36 38 39 43 39 34 36 28 32 31
15 13 11 11 11 10 8 9 7 5 7 11 12 15 16 19 23 26 19 20 20 30 35 35 34 31 35 37 36 33 32 27
16 14 13 10 10 10 8 8 8 6 9 11 12 17 13 16 22 24 30 34 27 32 35 30 34 35 37 40 39 34 28 24
16 14 14 9 10 9 8 7 7 7 9 10 9 14 10 11 11 14 24 26 27 31 29 26 26 29 27 25 24 21 21 25
17 14 12 11 10 8 8 5 4 5 7 10 9 6 9 5 11 11 10 13 15 17 17 17 18 22 23 24 22 23 25 27
20 18 15 15 13 11 9 8 6 3 3 5 9 4 5 10 11 11 9 14 15 18 19 21 21 24 25 26 27 26 27 29

GFSFLT2_500_spd_093.txt.gz
Wind_Speed
27 31 32 26 23 23 21 21 22 24 28 32 34 35 32 37 37 38 44 31 26 27 31 31 28 27 32 32 29 26 26 20
27 31 30 26 24 22 22 22 23 23 27 29 31 29 29 35 30 26 28 32 26 28 27 30 29 30 34 34 34 33 32 22
28 32 27 23 21 22 23 25 25 23 24 28 26 29 33 33 33 26 30 32 27 28 26 27 29 33 33 38 34 31 27 18
28 33 28 24 20 23 23 25 26 24 23 24 24 28 30 32 33 35 34 38 25 31 27 25 30 33 37 36 34 34 30 25
27 32 28 28 24 25 21 23 26 24 23 24 23 26 29 31 33 37 34 36 33 35 30 25 29 32 36 35 38 39 27 19
27 29 27 28 24 22 20 22 26 23 22 20 22 19 24 30 39 41 37 42 32 34 34 32 28 33 34 41 39 25 28 23
27 27 26 26 24 22 20 20 25 22 20 16 21 10 10 25 40 37 40 40 29 33 27 27 27 34 36 33 26 25 28 27
26 25 24 24 23 22 18 16 20 20 19 15 16 10 16 32 38 38 34 33 30 30 28 28 28 24 31 33 29 29 27 29
24 24 21 22 24 22 19 17 20 21 19 16 15 17 12 18 32 35 27 32 31 35 28 23 29 29 28 31 31 31 29 32
23 23 19 20 25 20 15 14 19 22 21 17 17 16 14 13 14 26 24 21 19 26 28 22 25 29 31 34 32 30 30 32
23 22 17 20 19 16 14 16 20 24 24 20 17 17 15 15 13 13 18 25 21 22 31 25 20 28 32 34 34 34 32 30
23 20 15 18 15 15 14 18 18 21 25 23 21 19 18 18 17 21 23 24 25 24 26 30 28 32 30 32 34 30 27 27
23 18 15 17 14 13 13 16 16 15 19 22 22 23 24 23 24 21 31 32 27 29 30 29 34 34 36 35 32 30 29 28
21 16 16 17 15 15 13 13 14 13 14 16 20 22 24 25 25 33 33 32 27 28 33 32 37 35 37 36 35 34 33 33
19 16 17 16 16 17 15 12 11 11 13 11 14 17 20 19 27 32 40 29 32 29 23 29 35 34 38 37 35 34 38 34
19 16 18 17 16 15 15 13 10 11 12 11 14 15 19 20 24 28 34 32 29 36 37 33 33 31 40 38 32 30 36 36
19 17 18 17 16 14 15 13 12 11 11 12 13 14 17 19 18 24 27 28 32 25 21 24 28 29 30 31 30 34 41 39
19 17 19 18 16 13 13 12 12 12 12 12 12 11 16 14 14 20 27 36 34 33 31 30 29 33 32 31 37 40 39 40
18 17 19 18 17 14 13 10 11 11 11 11 11 10 10 4 10 12 21 35 25 24 32 38 36 34 34 37 37 35 32 32
20 19 21 20 17 16 15 11 10 13 14 12 8 6 5 11 8 7 6 6 12 17 21 24 20 19 20 23 26 28 28 28

GFSFLT2_500_spd_096.txt.gz
Wind_Speed
21 22 24 30 30 27 25 23 22 20 22 22 26 27 28 32 27 32 34 36 33 27 27 30 34 31 27 25 25 22 23 24
24 22 24 28 28 25 22 22 22 22 23 24 25 24 26 27 27 27 32 32 34 25 26 28 33 31 34 25 18 23 24 25
24 20 22 27 27 23 21 21 22 24 23 25 26 24 26 27 27 25 27 28 24 27 25 27 31 28 18 20 26 25 26 31
26 21 22 25 27 26 23 22 23 25 23 24 25 25 25 26 28 29 24 24 23 25 26 25 26 25 23 25 26 27 29 35
28 23 20 24 28 25 23 22 23 26 26 25 25 25 25 23 27 27 28 25 28 30 25 23 23 24 27 27 27 31 33 36
29 23 20 23 27 24 23 20 22 25 26 26 25 25 27 32 27 30 30 34 40 33 22 25 24 24 27 28 30 32 34 33
31 23 20 24 26 23 22 20 23 26 24 22 23 25 29 24 26 33 37 39 40 34 30 25 29 26 24 27 29 32 32 37
30 21 20 23 25 23 21 21 23 23 21 20 22 23 25 14 16 30 36 38 40 41 29 25 31 31 27 28 32 31 30 26
30 20 21 23 24 20 20 22 22 23 22 20 21 21 21 10 14 28 39 38 38 37 27 29 29 30 28 23 38 37 27 26
28 22 23 22 23 19 20 18 18 21 24 23 20 19 18 20 11 27 41 37 33 29 26 31 30 30 33 28 26 34 29 29
26 24 23 21 22 18 19 16 17 21 24 24 20 20 18 16 13 20 30 32 31 27 25 32 31 28 31 32 29 27 29 31
27 24 24 21 20 16 17 16 16 20 22 22 18 19 22 18 16 11 24 36 27 25 19 23 24 27 30 30 32 32 32 34
29 25 25 20 19 17 16 16 16 17 18 19 17 18 22 22 19 15 22 13 22 22 22 24 26 29 28 30 30 32 34 33
31 26 24 19 18 17 17 17 17 15 15 19 18 16 19 24 22 21 20 25 28 23 21 25 26 31 33 35 34 34 33 32
31 27 23 19 18 17 16 17 17 16 14 14 17 15 15 20 22 23 29 34 32 32 28 27 23 32 34 36 37 38 39 36
34 27 22 20 18 17 15 15 15 15 14 12 12 15 15 18 22 27 28 33 34 35 36 33 25 23 24 31 36 39 40 38
35 28 22 20 19 17 15 15 15 15 13 12 11 12 13 17 21 24 24 31 38 32 30 30 31 31 30 27 29 33 38 30
34 27 23 20 19 17 15 14 16 14 11 10 13 11 12 15 20 23 24 26 36 41 35 28 21 25 29 27 24 25 29 33
32 28 23 20 18 18 17 13 15 14 12 10 11 12 12 12 13 18 17 24 30 30 28 30 35 27 36 29 27 31 31 36
32 30 22 20 19 19 19 15 15 13 13 13 11 11 10 11 12 5 5 5 28 31 27 28 29 31 36 33 37 38 38 37

GFSFLT2_500_spd_099.txt.gz
Wind_Speed
24 20 21 22 23 25 24 23 21 17 18 18 21 20 19 21 25 29 28 24 23 28 37 26 34 33 30 29 23 23 21 20
26 22 20 22 21 24 23 22 20 18 20 18 20 22 20 21 22 25 24 23 26 22 29 22 29 34 35 28 24 24 22 22
31 24 21 20 20 21 20 19 20 19 19 20 19 20 21 21 21 25 25 22 19 20 20 25 27 32 35 26 34 24 21 22
32 28 23 22 21 19 21 19 20 20 20 22 21 21 22 22 22 23 23 20 19 23 17 27 25 27 28 31 30 23 24 21
33 32 26 25 22 20 21 21 19 20 20 23 22 22 23 24 23 20 22 24 21 20 24 26 26 27 30 27 20 20 23 24
33 34 29 25 24 20 21 20 17 17 19 21 23 23 23 25 25 25 24 24 29 26 27 30 29 27 31 26 24 25 26 27
34 35 30 24 25 23 20 20 17 17 19 22 22 22 23 24 26 31 27 27 33 30 29 31 28 27 26 27 26 25 26 30
33 34 30 26 26 25 20 18 17 17 20 23 22 23 23 22 27 28 23 35 35 35 34 31 25 28 25 27 28 27 27 29
32 31 30 26 28 26 20 18 15 17 20 22 23 24 24 22 21 20 24 29 33 44 40 40 29 33 28 28 28 27 28 30
32 31 29 25 28 26 17 17 16 17 18 22 24 25 25 21 17 19 19 31 37 39 39 36 32 28 29 30 29 29 28 36
33 30 30 25 28 26 16 15 15 18 20 23 23 22 22 20 16 19 13 30 35 39 46 40 32 28 28 29 33 31 30 32
33 30 30 25 30 26 16 15 15 17 19 21 20 18 20 18 17 15 7 33 34 37 44 35 31 33 35 31 34 34 32 30
35 32 31 26 31 26 18 16 17 17 18 19 18 15 19 16 18 15 15 18 37 36 36 33 33 33 36 32 29 30 34 32
38 34 31 28 30 29 20 16 18 16 17 18 18 16 16 17 17 18 16 14 30 38 38 33 32 32 28 27 28 27 29 31
34 36 34 29 30 29 21 17 16 15 16 16 15 15 15 15 15 19 21 18 19 19 19 20 20 21 26 30 30 29 33 35
36 37 35 32 29 27 22 18 15 13 14 15 15 12 11 13 15 19 21 22 23 27 26 30 21 17 27 27 29 28 32 35
37 39 38 32 30 26 22 19 15 13 13 13 15 12 11 10 11 17 23 30 24 24 28 32 27 26 31 31 27 26 32 36
38 38 37 31 30 26 21 20 15 13 12 11 13 11 12 12 14 16 19 21 23 28 32 34 30 29 28 31 28 25 25 28
36 38 35 32 30 27 23 21 16 13 12 10 12 10 11 13 15 17 18 21 25 29 27 34 33 30 28 31 29 35 26 27
34 37 37 35 30 28 24 21 19 14 13 11 10 10 8 7 10 13 11 15 15 23 31 33 32 35 37 26 28 31 28 31

GFSFLT2_500_spd_102.txt.gz
Wind_Speed
19 21 23 25 26 24 22 21 21 19 17 16 19 21 21 17 18 21 19 23 29 21 23 23 30 35 35 34 31 28 25 25
21 19 23 24 24 23 22 23 22 19 17 17 20 20 19 17 19 20 20 23 24 20 22 27 27 40 36 35 31 26 25 28
26 22 22 23 24 21 22 23 23 22 18 17 19 21 21 18 18 20 20 21 21 18 19 16 21 36 35 36 30 29 28 26
27 26 23 23 24 22 24 23 23 23 19 17 19 22 21 21 21 22 20 19 20 17 21 23 25 30 27 36 32 31 29 20
28 28 25 26 24 24 24 25 22 22 19 16 18 22 22 23 23 22 22 20 20 20 19 23 29 28 26 35 34 31 32 27
28 30 28 27 26 27 24 26 24 20 18 17 17 19 21 24 25 23 23 23 23 25 19 19 27 26 27 32 36 31 32 31
29 31 29 27 27 27 26 26 25 21 18 17 20 20 21 22 23 24 23 21 26 28 25 26 30 28 27 32 33 28 31 30
30 32 29 26 26 27 26 28 24 22 19 17 19 22 23 22 24 25 27 26 32 33 33 23 33 31 31 34 34 30 28 26
32 34 31 27 26 27 26 28 23 20 19 17 18 22 24 24 23 24 23 29 30 34 31 29 36 34 33 32 34 32 30 29
36 36 34 27 25 28 27 26 24 19 19 17 18 23 24 23 23 23 21 22 26 39 29 40 33 36 36 30 31 32 33 31
37 37 36 27 25 27 27 26 24 19 19 20 19 24 23 20 20 20 18 22 29 38 43 40 39 43 33 36 33 33 34 32
40 38 36 29 27 27 27 26 24 21 20 21 21 23 21 20 19 18 17 19 29 36 33 46 41 50 37 37 38 34 33 30
40 39 39 34 28 28 27 26 24 21 21 23 22 22 21 18 18 16 17 18 22 33 39 31 39 42 40 33 33 30 32 34
42 42 41 37 30 29 28 27 25 21 22 22 22 19 19 15 15 16 15 16 7 36 36 35 43 40 37 34 33 31 29 32
41 43 42 39 33 30 29 27 26 21 22 20 21 18 17 15 13 14 14 13 13 19 31 38 46 40 35 34 35 33 32 31
44 43 46 42 34 31 30 28 25 23 22 17 19 17 16 14 12 12 15 16 17 14 21 32 42 41 37 30 29 28 30 27
45 44 47 42 35 33 30 29 27 24 22 17 17 15 16 15 13 11 12 15 19 21 17 19 22 24 20 23 22 21 24 26
45 43 45 40 36 33 30 29 28 25 21 18 14 15 15 16 16 14 15 16 19 21 20 18 23 29 26 26 26 28 25 25
41 43 42 39 35 34 31 29 29 27 21 17 13 15 14 16 17 18 17 15 16 17 25 24 24 29 30 26 31 27 28 28
41 40 43 36 34 33 31 29 31 28 22 17 12 13 14 15 14 15 13 11 15 18 20 30 33 30 31 35 28 31 33 31

GFSFLT2_500_spd_105.txt.gz
Wind_Speed
19 20 19 20 21 21 22 24 23 22 22 20 19 19 20 21 16 17 20 21 21 14 20 26 24 28 28 33 32 32 33 31
24 21 20 19 21 21 21 23 24 23 24 22 21 20 20 19 15 17 21 22 21 24 22 18 16 24 27 36 35 36 33 35
27 25 22 19 20 21 21 22 23 25 25 23 23 21 21 20 19 19 21 23 20 22 22 17 17 22 25 31 39 38 34 32
28 29 25 21 19 21 22 22 23 26 26 24 23 23 23 23 22 21 21 22 21 20 20 22 19 22 24 35 40 36 38 30
31 31 29 23 18 21 22 22 23 26 26 25 22 22 23 24 25 24 24 22 22 21 22 24 23 24 21 30 35 37 35 31
34 33 31 26 21 22 23 23 23 26 27 25 23 23 23 21 23 25 24 24 23 23 25 26 25 26 25 28 26 36 32 33
36 35 33 29 26 21 23 23 23 27 27 25 24 23 22 21 21 22 23 24 25 25 26 28 25 27 31 25 25 31 33 33
36 36 36 33 30 23 24 23 23 26 26 25 24 23 22 19 23 24 25 24 26 28 25 31 22 26 31 26 27 30 32 33
36 37 37 37 34 26 25 23 23 27 26 26 23 22 20 19 23 26 28 27 27 28 29 30 23 30 30 30 30 28 30 31
39 39 39 40 37 31 27 25 24 26 26 25 23 22 21 21 23 25 27 26 28 26 31 31 30 33 33 34 31 31 31 31
41 40 39 41 40 35 29 27 26 26 25 25 23 24 22 22 23 23 24 26 27 27 31 36 34 33 36 38 33 31 32 35
40 42 42 42 43 39 33 30 27 26 25 25 24 25 24 24 23 23 22 25 24 30 31 39 39 38 44 39 35 31 34 32
40 42 41 44 45 43 37 32 28 27 25 26 26 26 26 25 23 22 21 23 24 27 34 42 37 33 45 35 40 38 34 30
42 40 41 44 46 46 42 36 28 28 26 26 27 26 27 22 22 20 19 21 22 23 28 43 37 47 36 36 42 31 35 33
46 43 40 42 43 47 47 40 30 27 26 25 27 26 26 21 21 19 19 18 20 21 24 36 39 42 38 41 44 42 34 32
46 47 41 42 41 45 47 42 33 28 26 26 28 27 26 21 20 18 18 16 17 16 8 34 31 33 37 39 36 34 31 34
43 45 43 43 40 44 47 40 35 28 26 26 27 26 26 20 20 18 17 16 16 18 13 9 23 32 33 32 36 39 38 38
42 42 42 42 40 44 46 38 38 28 27 25 26 26 25 21 19 18 19 17 16 16 15 15 11 10 20 25 24 30 31 32
44 40 41 41 38 44 45 39 39 28 27 23 26 25 23 21 20 18 19 19 17 17 17 24 19 18 16 21 22 20 22 21
46 43 43 42 39 44 43 43 36 28 26 23 26 23 21 19 20 17 16 16 15 14 14 20 23 25 24 21 25 24 24 26

GFSFLT2_500_spd_111.txt.gz
Wind_Speed
24 19 17 17 17 15 16 14 14 14 15 19 18 16 16 17 19 17 18 19 19 20 20 19 17 17 19 23 25 26 29 27
27 22 19 19 18 17 18 18 16 15 15 17 19 17 17 18 18 19 18 19 20 18 19 17 18 17 14 23 26 28 27 28
28 26 23 21 19 19 19 20 18 20 17 17 19 19 18 18 20 18 19 20 22 20 17 18 20 20 21 21 23 26 25 27
30 29 27 25 23 20 20 21 20 20 20 19 19 19 19 21 21 20 19 20 21 21 20 21 21 20 21 22 20 23 24 25
31 31 30 28 28 23 21 21 21 21 22 21 20 21 20 21 23 22 20 21 22 21 22 23 22 21 20 26 22 21 28 31
34 32 30 30 31 27 24 23 22 22 23 24 21 21 21 21 23 23 21 22 21 17 19 22 23 22 23 24 26 27 24 30
33 34 32 31 33 29 27 25 25 23 23 25 24 21 21 22 21 22 23 22 22 19 20 23 23 23 24 24 28 32 27 30
32 33 33 32 33 32 29 27 28 25 24 27 26 24 23 23 22 20 22 23 23 21 22 25 25 25 25 25 24 30 25 29
34 33 30 33 33 33 32 30 29 28 25 28 29 26 26 24 24 22 22 22 24 24 24 26 27 26 27 26 29 26 27 27
34 37 34 31 34 34 33 32 31 32 27 29 31 30 28 28 25 24 24 24 24 25 25 27 27 28 28 25 24 27 30 24
39 40 38 34 30 38 35 34 31 33 32 29 30 32 30 29 28 27 25 26 27 26 27 27 27 28 29 23 21 31 34 30
43 42 37 38 30 34 37 35 32 32 36 32 31 32 31 30 30 27 26 28 28 26 28 27 27 26 29 24 26 36 33 33
42 41 37 37 29 31 40 37 35 33 36 33 32 32 31 30 30 27 27 27 27 26 29 28 28 27 28 30 32 35 38 38
41 39 39 38 32 32 42 40 39 36 36 35 32 33 30 30 28 28 27 26 28 28 29 29 29 29 27 38 30 40 45 37
40 40 37 39 38 31 37 40 40 38 35 39 37 33 28 28 27 28 27 26 28 27 29 27 26 27 24 26 36 40 46 36
41 41 44 44 41 33 37 41 39 37 37 41 39 33 28 25 26 27 27 26 27 27 28 24 21 23 26 27 38 35 45 39
44 42 42 42 40 38 37 41 39 38 37 40 39 35 27 24 26 28 27 26 27 26 27 24 22 23 22 30 35 41 42 40
44 44 45 44 43 40 35 38 41 38 37 37 36 34 26 24 26 28 26 26 27 27 25 25 21 21 16 29 38 39 37 41
42 45 46 45 42 38 32 37 41 41 41 37 36 31 25 25 26 29 25 26 27 27 23 26 22 19 13 11 35 37 34 32
42 41 41 41 42 38 30 37 40 41 40 38 38 31 25 25 26 29 26 25 25 24 22 25 21 19 18 10 9 22 24 32

GFSFLT2_500_spd_114.txt.gz
Wind_Speed
26 28 26 24 21 18 17 17 17 16 15 15 15 16 17 17 17 17 19 17 17 16 17 19 20 22 22 15 16 22 21 23
26 28 29 26 23 21 18 17 19 18 17 16 16 16 17 18 18 18 19 18 19 17 18 18 20 19 19 18 16 20 21 24
30 26 28 28 25 23 21 19 19 20 18 17 17 18 18 18 18 18 18 18 19 19 18 19 20 20 20 21 19 20 22 25
32 26 27 29 29 27 23 22 20 21 20 19 18 20 20 20 19 19 19 18 19 20 19 20 22 21 21 21 20 20 23 20
31 30 28 28 32 30 27 25 22 22 22 20 19 21 20 20 20 20 19 19 20 20 20 21 22 21 22 22 21 19 18 22
33 31 29 28 32 32 31 28 25 23 22 22 21 21 20 20 21 20 20 18 19 20 20 22 22 20 22 22 21 21 24 19
34 34 31 29 29 32 33 30 27 25 23 23 22 21 22 22 23 21 20 20 20 20 20 23 23 24 21 23 23 23 24 28
36 32 33 32 28 31 32 31 29 26 26 24 23 24 25 23 24 23 21 21 19 19 20 23 25 25 27 26 25 24 22 25
38 37 34 34 30 29 32 31 31 28 27 25 25 25 27 26 24 24 24 23 19 20 23 25 26 28 30 28 27 24 24 31
41 39 38 33 30 30 30 32 33 30 28 27 27 25 26 27 26 23 24 24 23 21 24 26 26 28 28 28 27 26 27 29
42 41 39 35 33 29 32 33 35 32 30 30 29 27 27 27 27 25 25 25 26 24 24 26 25 28 29 28 27 24 27 28
44 41 39 36 37 31 30 35 36 33 31 32 32 28 28 28 28 27 25 25 26 26 25 24 26 28 28 27 24 25 27 28
44 42 39 39 37 33 29 29 37 36 32 32 35 30 29 29 30 29 26 25 27 27 27 24 27 27 29 28 28 27 24 30
45 44 42 38 37 35 34 29 34 34 34 34 37 32 33 31 30 29 27 26 27 28 27 26 27 27 29 29 29 31 27 34
42 40 39 37 36 37 34 34 33 35 32 31 36 36 38 33 30 29 27 26 27 28 27 26 27 27 29 27 26 28 32 36
41 41 40 38 36 36 33 32 32 37 36 32 37 39 40 34 29 29 27 27 26 28 27 26 27 26 26 25 29 29 31 40
38 38 38 39 39 41 37 33 35 36 36 35 37 39 39 35 31 29 28 26 26 28 27 25 27 26 26 27 24 24 24 40
37 38 39 40 41 40 37 34 32 36 39 39 38 38 40 37 32 30 28 27 26 28 27 25 28 27 28 25 21 24 25 36
41 42 42 43 41 40 36 32 30 40 42 41 40 40 41 37 32 31 27 26 27 27 27 26 27 28 28 25 22 23 28 29
44 44 45 46 45 41 40 39 35 39 40 41 42 43 42 38 33 30 28 27 27 27 26 25 27 27 26 26 25 17 26 30

GFSFLT2_500_spd_117.txt.gz
Wind_Speed
27 30 30 30 27 25 24 21 20 19 18 19 18 18 18 19 18 16 16 17 18 17 18 18 19 21 18 19 16 17 16 19
26 30 30 30 29 27 26 24 20 20 19 19 18 19 19 19 18 16 16 17 18 19 19 19 19 21 18 18 17 17 15 17
28 30 29 30 29 27 27 26 23 21 21 18 19 19 19 19 17 16 16 17 19 21 22 22 21 20 19 19 18 17 16 18
33 30 30 28 28 29 28 28 26 23 21 20 19 19 20 19 16 15 15 17 18 20 22 23 24 21 19 19 19 16 18 18
34 31 32 28 27 28 28 29 28 26 23 22 20 20 20 21 17 16 16 17 18 20 21 23 23 22 19 17 21 19 17 18
37 33 32 29 28 28 27 27 29 29 25 23 20 20 20 21 20 18 16 17 18 19 21 22 22 20 21 18 21 21 19 18
33 35 34 32 32 29 26 27 29 30 26 25 21 20 20 21 21 20 18 17 18 19 20 22 22 22 22 22 22 24 21 22
31 35 35 34 32 29 27 28 29 30 28 26 23 21 20 21 22 22 20 18 17 19 20 20 22 24 25 26 25 26 25 23
33 35 34 34 34 33 29 29 31 29 30 28 26 24 22 21 22 23 21 20 18 18 22 22 24 24 26 26 24 26 25 27
31 35 35 35 34 34 34 32 31 30 30 31 27 27 25 23 22 23 24 22 21 19 21 24 25 25 28 27 24 24 24 29
37 37 38 38 36 35 35 35 33 33 31 30 28 30 29 25 23 24 26 25 22 20 21 24 26 27 28 27 26 25 26 27
41 41 41 40 39 37 35 32 34 36 34 30 30 30 32 27 25 26 26 27 26 22 21 25 26 28 28 28 26 25 24 27
42 42 41 39 38 37 36 33 34 38 37 34 30 31 32 29 27 28 29 28 28 24 23 25 26 29 30 28 27 26 28 28
44 43 42 35 33 33 36 35 35 38 38 36 27 32 33 32 29 30 30 30 31 27 24 25 26 29 31 28 27 27 26 26
44 43 41 34 32 34 34 35 38 36 32 35 33 33 36 34 34 33 30 31 32 29 27 26 27 28 30 28 26 25 28 25
44 45 41 36 35 35 33 35 38 36 35 35 36 31 37 38 35 32 31 32 32 32 29 28 28 28 30 29 27 26 26 29
43 41 41 38 37 37 37 36 37 39 39 39 35 37 38 41 36 33 33 32 32 32 31 29 29 28 30 29 28 27 26 30
45 41 43 44 41 40 36 38 38 40 39 44 36 38 42 43 41 37 36 34 34 33 32 30 29 29 30 29 28 29 25 27
44 43 43 45 44 40 40 40 42 41 34 30 31 36 39 42 44 42 38 38 36 34 33 32 29 30 31 28 28 28 26 24
42 46 47 44 44 45 43 43 42 39 37 36 41 42 43 39 42 44 39 39 37 36 34 32 30 29 30 28 27 27 25 25

GFSFLT2_500_spd_120.txt.gz
Wind_Speed
29 26 27 26 25 26 26 24 24 23 21 18 17 18 18 16 18 18 18 16 16 15 16 16 16 18 18 17 16 15 17 17
30 30 29 26 26 26 25 25 23 25 23 20 18 18 18 17 17 17 17 17 17 16 16 17 17 18 17 16 18 17 17 17
29 30 31 31 27 26 26 24 23 23 24 23 20 19 17 17 16 17 16 16 17 17 16 17 18 17 17 16 17 19 15 15
32 32 34 32 30 29 27 25 24 24 24 23 22 20 18 18 17 16 16 15 16 18 17 18 18 16 15 15 17 17 17 16
43 39 37 32 33 30 29 28 25 24 25 23 22 22 19 19 18 16 17 16 16 17 17 17 18 17 15 15 16 16 18 16
40 41 38 30 32 30 30 29 28 25 25 24 23 22 20 19 18 16 16 16 16 16 17 18 18 18 16 17 16 18 19 17
43 36 35 34 36 32 29 28 30 29 25 25 23 22 21 20 19 17 17 17 17 17 17 18 18 19 19 18 20 20 20 21
47 39 35 34 33 34 30 32 30 29 27 27 25 24 21 21 21 20 17 18 18 18 18 19 18 19 20 20 21 22 22 22
57 41 36 37 34 31 32 29 31 29 28 28 26 26 23 22 22 22 19 18 19 20 19 19 20 19 22 22 23 23 22 21
62 45 36 37 35 32 34 33 34 32 30 30 29 28 27 23 23 23 22 20 20 22 21 20 21 21 22 24 23 24 22 23
63 50 40 37 35 34 33 36 33 33 32 31 33 32 28 26 26 24 23 23 22 23 23 22 22 23 23 24 24 25 23 24
67 52 46 41 43 40 38 35 33 33 34 34 35 34 31 29 29 25 24 25 25 25 24 25 25 25 25 25 26 26 24 25
71 55 48 46 47 46 42 35 34 36 34 36 35 34 35 33 31 26 26 28 27 27 25 26 26 27 26 26 27 27 25 26
72 58 52 49 47 45 42 39 37 37 37 38 37 36 37 34 33 29 29 30 30 28 27 28 27 28 27 28 27 26 25 26
69 59 55 52 48 44 41 42 38 39 38 38 36 37 39 40 37 34 32 33 33 32 28 29 28 29 29 29 30 27 26 27
63 62 51 50 47 39 37 40 41 39 40 41 39 41 42 45 42 33 27 32 34 35 31 29 30 30 30 30 31 30 28 26
67 62 48 46 44 39 37 41 43 40 36 33 40 41 41 44 42 37 37 36 37 36 34 31 30 31 31 31 31 31 30 27
61 58 54 49 46 42 41 42 43 40 37 34 36 39 43 47 47 44 40 37 38 38 39 35 32 33 32 32 31 32 31 29
54 63 56 53 47 43 43 43 43 40 40 40 42 36 41 38 54 48 39 40 37 41 43 39 34 35 34 33 32 32 32 29
44 49 48 46 45 45 46 45 44 42 43 42 43 40 39 42 39 37 44 41 38 39 42 41 36 36 35 33 33 31 31 29